                ,  0.485,  0.585,  0.685,  0.785,  0.885,  0.985,  1.085,  1.185,  1.285,  1.385,  1.485,  1.585,  1.685,  1.785,  1.885,  1.985,  2.085,  2.185,  2.285,  2.385,  2.485,  2.585,  2.685,  2.785,  2.885,  2.985,  3.085,  3.185,  3.285,  3.385,  3.485,  3.585,  3.685,  3.785,  3.885,  3.985,  4.085,  4.185,  4.285,  4.385,  4.485,  4.585,  4.685,  4.785,  4.885,  4.985,  5.085,  5.185,  5.285,  5.385,  5.485,  5.585,  5.685,  5.785,  5.885,  5.985,  6.085,  6.185,  6.285,  6.385,  6.485,  6.585,  6.685,  6.785,  6.885,  6.985,  7.085,  7.185,  7.285,  7.385,  7.485,  7.585,  7.685,  7.785,  7.885,  7.985,  8.085,  8.185,  8.285,  8.385
2012/01/21 00:00,  999.0,  999.0,   -2.6,   -2.4,   -2.0,  999.0,   -0.7,   -0.6,   -0.5,   -0.5,   -0.5,   -0.5,   -0.5,   -0.4,   -0.5,   -0.4,   -0.6,   -0.7,   -0.7,   -0.7,   -0.9,   -0.6,   -0.4,   -0.4,   -0.0,   -0.1,   -0.2,   -0.3,   -0.2,    0.1,    0.1,  999.0,  999.0,  999.0,  999.0,  999.0,  999.0,  999.0,  999.0,  999.0,  999.0,  999.0,  999.0,  999.0,  999.0,  999.0,   -0.2,  999.0,  999.0,   -0.5,   -0.5,   -0.5,   -0.5,   -0.4,   -0.1,   -0.5,   -0.4,   -0.3,  999.0,   -0.5,   -0.5,   -0.6,  999.0,   -0.3,  999.0,   -0.3,  999.0,  999.0,  999.0,  999.0,  999.0,  999.0,  999.0,  999.0,  999.0,  999.0,  999.0,   -0.3,  999.0,   -0.1
2012/01/21 00:10,  999.0,  999.0,   -2.1,   -2.0,   -1.7,   -0.8,   -0.6,   -0.6,   -0.7,   -0.6,   -0.7,   -0.6,   -0.6,   -0.7,   -0.9,   -0.9,   -1.0,   -1.0,   -1.1,   -0.9,   -0.7,   -0.5,   -0.3,   -0.2,   -0.1,   -0.3,   -0.5,   -0.5,   -0.2,   -0.0,    0.1,  999.0,  999.0,  999.0,  999.0,  999.0,  999.0,  999.0,  999.0,  999.0,  999.0,  999.0,  999.0,  999.0,  999.0,  999.0,  999.0,  999.0,  999.0,   -0.5,   -0.5,   -0.5,   -0.4,   -0.4,   -0.4,   -0.4,   -0.4,   -0.4,   -0.5,   -0.5,   -0.5,   -0.4,   -0.3,   -0.3,  999.0,  999.0,  999.0,  999.0,  999.0,  999.0,  999.0,  999.0,  999.0,  999.0,  999.0,  999.0,  999.0,  999.0,  999.0,  999.0
2012/01/21 00:20,  999.0,  999.0,   -2.0,   -2.0,   -1.5,   -0.9,   -0.6,   -0.6,   -0.5,   -0.6,   -0.6,   -0.6,   -0.7,   -0.6,   -0.5,   -0.7,   -0.8,   -0.8,   -0.7,   -0.6,   -0.3,   -0.1,    0.1,    0.0,    0.0,   -0.3,   -0.4,   -0.3,   -0.1,   -0.0,  999.0,  999.0,  999.0,  999.0,  999.0,  999.0,  999.0,  999.0,  999.0,  999.0,  999.0,  999.0,  999.0,  999.0,  999.0,  999.0,  999.0,  999.0,  999.0,  999.0,  999.0,   -0.5,   -0.6,   -0.6,   -0.6,   -0.6,   -0.6,   -0.6,   -0.6,   -0.6,   -0.6,   -0.6,   -0.6,   -0.6,   -0.5,   -0.6,   -0.4,   -0.5,   -0.4,   -0.5,   -0.5,   -0.1,   -0.3,  999.0,   -0.2,  999.0,  999.0,  999.0,  999.0,  999.0
2012/01/21 00:30,  999.0,  999.0,   -1.7,   -2.0,  999.0,   -0.7,   -0.5,   -0.6,   -0.6,   -0.7,   -0.7,   -0.9,   -1.0,   -0.9,   -0.8,   -0.7,   -0.5,   -0.5,   -0.4,   -0.2,   -0.2,   -0.1,   -0.1,   -0.1,   -0.0,  999.0,  999.0,  999.0,   -0.0,    0.0,  999.0,  999.0,  999.0,  999.0,  999.0,  999.0,  999.0,  999.0,  999.0,  999.0,  999.0,  999.0,  999.0,  999.0,  999.0,  999.0,  999.0,  999.0,  999.0,  999.0,  999.0,  999.0,  999.0,   -0.6,   -0.6,   -0.6,   -0.6,   -0.6,   -0.6,   -0.7,   -0.6,   -0.7,   -0.6,   -0.7,   -0.6,   -0.5,   -0.5,   -0.6,   -0.4,   -0.4,   -0.4,   -0.3,   -0.2,   -0.3,  999.0,  999.0,  999.0,  999.0,  999.0,  999.0
2012/01/21 00:40,  999.0,  999.0,   -1.8,   -1.7,   -1.3,   -0.7,   -0.7,   -0.7,   -0.7,   -0.8,   -0.8,   -0.8,   -0.7,   -0.7,   -0.7,   -0.5,   -0.3,   -0.1,   -0.2,   -0.0,    0.1,    0.1,    0.2,    0.0,  999.0,   -0.1,  999.0,    0.1,    0.2,  999.0,  999.0,  999.0,  999.0,  999.0,  999.0,  999.0,  999.0,  999.0,  999.0,  999.0,  999.0,  999.0,  999.0,  999.0,  999.0,  999.0,  999.0,  999.0,  999.0,  999.0,   -0.5,   -0.5,   -0.6,   -0.6,   -0.5,   -0.6,   -0.7,   -0.7,   -0.6,  999.0,  999.0,  999.0,  999.0,  999.0,   -0.3,  999.0,  999.0,  999.0,  999.0,  999.0,   -0.5,  999.0,  999.0,  999.0,  999.0,  999.0,  999.0,  999.0,  999.0,  999.0
2012/01/21 00:50,  999.0,  999.0,  999.0,   -1.6,   -1.2,   -0.9,   -0.5,   -0.4,   -0.5,   -0.5,   -0.6,   -0.7,   -0.5,   -0.6,   -0.3,   -0.1,   -0.1,   -0.2,   -0.4,   -0.3,   -0.2,   -0.3,   -0.1,   -0.0,   -0.1,    0.0,  999.0,  999.0,    0.0,  999.0,  999.0,  999.0,  999.0,  999.0,  999.0,  999.0,  999.0,  999.0,  999.0,  999.0,  999.0,  999.0,  999.0,  999.0,  999.0,  999.0,  999.0,  999.0,  999.0,  999.0,   -0.6,   -0.7,   -0.8,   -0.7,   -0.7,   -0.8,   -0.8,   -0.4,  999.0,  999.0,  999.0,  999.0,  999.0,  999.0,   -0.5,   -0.8,  999.0,  999.0,  999.0,  999.0,  999.0,  999.0,  999.0,  999.0,  999.0,  999.0,  999.0,  999.0,  999.0,  999.0
2012/01/21 01:00,  999.0,  999.0,  999.0,   -1.2,   -1.1,   -0.8,   -0.6,   -0.6,   -0.5,   -0.6,   -0.4,   -0.7,   -0.3,   -0.3,   -0.3,   -0.1,   -0.1,   -0.2,   -0.3,   -0.0,    0.1,    0.3,    0.0,   -0.1,  999.0,    0.1,  999.0,  999.0,  999.0,  999.0,  999.0,  999.0,  999.0,  999.0,  999.0,  999.0,  999.0,  999.0,  999.0,  999.0,  999.0,  999.0,  999.0,  999.0,  999.0,  999.0,  999.0,  999.0,   -0.6,   -0.6,   -0.6,   -0.8,   -0.8,   -0.7,   -0.7,   -0.7,   -0.8,   -0.8,   -0.7,   -0.7,   -0.7,   -0.7,   -0.7,   -0.7,  999.0,  999.0,  999.0,  999.0,  999.0,  999.0,  999.0,  999.0,  999.0,  999.0,  999.0,  999.0,  999.0,  999.0,  999.0,  999.0
2012/01/21 01:10,  999.0,  999.0,  999.0,   -0.8,   -0.7,   -0.7,   -0.5,   -0.5,   -0.6,   -0.3,   -0.4,   -0.3,   -0.3,   -0.1,   -0.0,    0.0,    0.1,   -0.1,   -0.3,   -0.1,   -0.1,   -0.0,   -0.1,  999.0,  999.0,    0.0,  999.0,    0.1,    0.3,  999.0,  999.0,  999.0,  999.0,  999.0,  999.0,  999.0,  999.0,  999.0,  999.0,  999.0,  999.0,  999.0,  999.0,  999.0,  999.0,  999.0,  999.0,  999.0,   -0.8,   -0.7,   -0.8,   -0.8,   -0.8,   -0.8,   -0.8,   -0.9,   -0.7,   -0.8,  999.0,  999.0,  999.0,  999.0,  999.0,  999.0,  999.0,  999.0,  999.0,  999.0,  999.0,  999.0,  999.0,  999.0,  999.0,  999.0,  999.0,  999.0,  999.0,  999.0,  999.0,  999.0
2012/01/21 01:20,  999.0,  999.0,  999.0,   -0.3,   -0.5,   -0.7,   -0.5,   -0.4,   -0.1,   -0.1,   -0.0,   -0.0,    0.1,    0.1,    0.1,    0.1,    0.1,    0.0,   -0.1,   -0.1,    0.0,   -0.0,   -0.1,  999.0,  999.0,  999.0,  999.0,    0.0,    0.1,  999.0,  999.0,  999.0,  999.0,  999.0,  999.0,  999.0,  999.0,  999.0,  999.0,  999.0,  999.0,  999.0,  999.0,  999.0,  999.0,  999.0,  999.0,  999.0,  999.0,   -0.8,   -0.7,   -0.7,   -0.7,   -0.9,   -0.5,  999.0,  999.0,  999.0,  999.0,  999.0,  999.0,  999.0,  999.0,  999.0,  999.0,  999.0,  999.0,  999.0,  999.0,  999.0,  999.0,  999.0,  999.0,  999.0,   -1.0,  999.0,   -1.0,  999.0,  999.0,   -1.0
2012/01/21 01:30,  999.0,  999.0,  999.0,   -0.1,  999.0,   -0.2,   -0.2,   -0.4,    0.1,    0.1,    0.1,    0.0,    0.1,    0.2,    0.2,    0.1,   -0.0,    0.1,    0.1,   -0.0,    0.1,   -0.1,    0.1,    0.1,  999.0,  999.0,    0.1,    0.1,    0.1,  999.0,  999.0,  999.0,  999.0,  999.0,  999.0,  999.0,  999.0,  999.0,  999.0,  999.0,  999.0,  999.0,  999.0,  999.0,  999.0,  999.0,  999.0,  999.0,  999.0,  999.0,  999.0,  999.0,  999.0,  999.0,  999.0,  999.0,  999.0,  999.0,  999.0,  999.0,  999.0,  999.0,  999.0,  999.0,  999.0,  999.0,  999.0,  999.0,  999.0,  999.0,  999.0,  999.0,  999.0,  999.0,  999.0,  999.0,  999.0,  999.0,  999.0,  999.0
2012/01/21 01:40,  999.0,  999.0,  999.0,    0.2,  999.0,  999.0,  999.0,  999.0,    0.1,    0.3,    0.1,    0.1,    0.1,    0.1,  999.0,    0.1,    0.1,   -0.0,    0.0,    0.1,    0.1,    0.1,    0.1,  999.0,  999.0,   -0.0,  999.0,    0.2,    0.3,    0.2,    0.2,  999.0,  999.0,  999.0,  999.0,  999.0,  999.0,  999.0,  999.0,  999.0,  999.0,  999.0,  999.0,  999.0,  999.0,  999.0,  999.0,  999.0,  999.0,  999.0,  999.0,  999.0,  999.0,  999.0,  999.0,  999.0,  999.0,  999.0,  999.0,  999.0,  999.0,  999.0,  999.0,  999.0,  999.0,  999.0,  999.0,  999.0,  999.0,  999.0,  999.0,  999.0,  999.0,  999.0,  999.0,  999.0,  999.0,  999.0,  999.0,  999.0
2012/01/21 01:50,  999.0,  999.0,  999.0,  999.0,  999.0,  999.0,  999.0,    0.3,    0.2,    0.1,    0.0,    0.1,    0.2,   -0.0,    0.0,   -0.1,   -0.0,   -0.1,    0.0,   -0.0,   -0.0,    0.1,    0.1,  999.0,  999.0,   -0.1,    0.0,    0.0,    0.1,    0.2,    0.1,   -0.0,  999.0,  999.0,  999.0,  999.0,  999.0,  999.0,  999.0,  999.0,  999.0,  999.0,  999.0,  999.0,  999.0,  999.0,  999.0,  999.0,  999.0,  999.0,  999.0,  999.0,  999.0,  999.0,  999.0,  999.0,  999.0,  999.0,  999.0,  999.0,  999.0,  999.0,  999.0,  999.0,  999.0,  999.0,  999.0,  999.0,  999.0,  999.0,  999.0,  999.0,  999.0,  999.0,  999.0,  999.0,  999.0,  999.0,  999.0,  999.0
2012/01/21 02:00,  999.0,  999.0,  999.0,    0.0,  999.0,  999.0,    0.1,  999.0,  999.0,    0.0,    0.1,    0.1,   -0.1,   -0.1,   -0.1,   -0.2,   -0.1,    0.1,    0.1,    0.0,    0.0,    0.1,    0.0,   -0.0,   -0.0,    0.1,   -0.1,   -0.1,    0.0,    0.0,    0.1,    0.1,    0.0,  999.0,  999.0,  999.0,  999.0,  999.0,  999.0,  999.0,  999.0,   -0.0,    0.3,  999.0,  999.0,  999.0,  999.0,  999.0,  999.0,  999.0,  999.0,  999.0,  999.0,  999.0,  999.0,  999.0,  999.0,  999.0,  999.0,  999.0,  999.0,  999.0,  999.0,  999.0,  999.0,  999.0,  999.0,  999.0,  999.0,  999.0,  999.0,  999.0,  999.0,  999.0,  999.0,  999.0,  999.0,  999.0,  999.0,  999.0
2012/01/21 02:10,   -0.0,  999.0,  999.0,    0.0,   -0.1,  999.0,  999.0,  999.0,  999.0,  999.0,   -1.4,   -1.1,   -0.9,   -0.7,   -0.5,   -0.6,   -0.5,   -0.8,   -0.5,   -0.2,   -0.1,   -0.2,   -0.3,   -0.5,   -0.7,   -0.6,   -0.5,   -0.5,   -0.4,   -0.3,   -0.3,   -0.2,    0.0,  999.0,  999.0,  999.0,  999.0,   -0.1,  999.0,  999.0,  999.0,    0.1,    0.1,  999.0,  999.0,  999.0,  999.0,  999.0,  999.0,  999.0,  999.0,  999.0,  999.0,  999.0,  999.0,  999.0,  999.0,  999.0,  999.0,  999.0,  999.0,  999.0,  999.0,  999.0,  999.0,  999.0,  999.0,  999.0,  999.0,  999.0,  999.0,  999.0,  999.0,  999.0,  999.0,  999.0,  999.0,  999.0,  999.0,  999.0
2012/01/21 02:20,  999.0,  999.0,  999.0,  999.0,  999.0,  999.0,  999.0,  999.0,   -1.0,   -0.9,   -0.7,   -0.6,   -0.5,   -0.6,   -0.5,   -0.4,   -0.3,   -0.3,   -0.2,   -0.2,   -0.2,   -0.3,   -0.6,   -0.6,   -0.6,   -0.6,   -0.4,   -0.3,   -0.1,   -0.1,   -0.1,   -0.0,    0.1,  999.0,  999.0,  999.0,  999.0,  999.0,  999.0,  999.0,  999.0,  999.0,  999.0,  999.0,  999.0,  999.0,  999.0,  999.0,  999.0,  999.0,  999.0,  999.0,  999.0,  999.0,  999.0,  999.0,  999.0,  999.0,  999.0,  999.0,  999.0,  999.0,  999.0,  999.0,  999.0,  999.0,  999.0,  999.0,  999.0,  999.0,  999.0,  999.0,  999.0,  999.0,  999.0,  999.0,  999.0,  999.0,  999.0,  999.0
2012/01/21 02:30,  999.0,  999.0,  999.0,    0.1,  999.0,   -1.4,  999.0,  999.0,   -0.5,   -0.4,   -0.2,   -0.3,   -0.5,   -0.4,   -0.5,   -0.5,   -0.5,   -0.4,   -0.2,   -0.3,   -0.3,   -0.2,   -0.5,   -0.4,   -0.4,   -0.4,   -0.3,   -0.1,   -0.0,   -0.1,    0.1,    0.1,   -0.0,   -0.1,  999.0,  999.0,  999.0,  999.0,  999.0,  999.0,  999.0,  999.0,  999.0,  999.0,  999.0,  999.0,  999.0,  999.0,  999.0,  999.0,  999.0,  999.0,  999.0,  999.0,  999.0,  999.0,  999.0,  999.0,  999.0,  999.0,  999.0,  999.0,  999.0,  999.0,  999.0,  999.0,  999.0,  999.0,  999.0,  999.0,  999.0,  999.0,  999.0,  999.0,  999.0,  999.0,  999.0,  999.0,  999.0,  999.0
2012/01/21 02:40,  999.0,  999.0,  999.0,   -2.1,   -1.9,   -1.4,   -1.1,   -1.4,   -1.3,   -0.1,   -0.6,   -0.2,   -0.2,   -0.3,   -0.2,   -0.2,   -0.2,   -0.1,   -0.1,   -0.1,   -0.0,   -0.0,   -0.0,    0.1,   -0.1,    0.1,   -0.0,    0.1,    0.2,   -0.1,   -0.1,   -0.2,   -0.3,   -0.1,  999.0,  999.0,  999.0,  999.0,  999.0,  999.0,  999.0,  999.0,  999.0,  999.0,  999.0,  999.0,  999.0,  999.0,  999.0,  999.0,  999.0,  999.0,  999.0,  999.0,  999.0,   -0.3,  999.0,  999.0,   -0.3,  999.0,  999.0,  999.0,  999.0,  999.0,  999.0,  999.0,  999.0,  999.0,   -0.3,   -0.3,   -0.3,   -0.3,  999.0,   -0.3,   -0.3,  999.0,   -0.3,  999.0,   -0.3,   -0.3
2012/01/21 02:50,  999.0,  999.0,  999.0,   -2.2,   -2.1,   -1.6,   -1.4,   -1.3,   -1.2,   -0.7,   -0.5,   -0.2,   -0.3,   -0.1,   -0.2,   -0.4,   -0.3,   -0.2,   -0.0,   -0.1,    0.1,    0.0,    0.0,   -0.0,   -0.0,   -0.0,   -0.0,  999.0,   -0.3,   -0.2,   -0.2,   -0.1,   -0.1,  999.0,  999.0,  999.0,  999.0,  999.0,  999.0,  999.0,  999.0,  999.0,  999.0,  999.0,  999.0,  999.0,  999.0,  999.0,  999.0,  999.0,  999.0,  999.0,  999.0,  999.0,  999.0,  999.0,  999.0,  999.0,  999.0,  999.0,  999.0,  999.0,  999.0,  999.0,  999.0,  999.0,  999.0,  999.0,   -0.3,   -0.3,   -0.3,   -0.3,   -0.3,  999.0,   -0.3,   -0.3,   -0.3,  999.0,  999.0,  999.0
2012/01/21 03:00,  999.0,  999.0,  999.0,   -1.6,   -1.5,   -1.3,   -0.9,   -0.9,   -0.6,   -0.2,    0.1,    0.0,    0.1,    0.1,    0.1,    0.3,   -0.1,    0.0,   -0.0,   -0.0,    0.1,   -0.0,   -0.0,   -0.1,    0.1,    0.2,    0.0,   -0.3,   -0.0,    0.0,    0.3,    0.2,  999.0,  999.0,  999.0,  999.0,  999.0,  999.0,  999.0,  999.0,  999.0,  999.0,  999.0,  999.0,  999.0,  999.0,  999.0,  999.0,  999.0,  999.0,  999.0,  999.0,  999.0,  999.0,  999.0,  999.0,  999.0,  999.0,  999.0,  999.0,  999.0,  999.0,  999.0,  999.0,  999.0,  999.0,  999.0,  999.0,  999.0,  999.0,  999.0,  999.0,   -0.3,  999.0,  999.0,  999.0,  999.0,  999.0,   -0.3,  999.0
2012/01/21 03:10,  999.0,  999.0,  999.0,   -1.6,   -1.6,   -1.2,   -0.9,   -0.9,   -0.7,   -0.4,   -0.2,   -0.0,   -0.1,   -0.1,   -0.0,   -0.1,   -0.2,   -0.2,   -0.0,  999.0,    0.0,    0.2,    0.2,    0.2,    0.1,  999.0,   -0.1,   -0.1,    0.0,    0.1,    0.1,    0.0,    0.1,  999.0,    0.1,  999.0,  999.0,  999.0,  999.0,  999.0,  999.0,  999.0,  999.0,  999.0,  999.0,  999.0,  999.0,  999.0,  999.0,  999.0,  999.0,  999.0,  999.0,  999.0,  999.0,  999.0,  999.0,  999.0,  999.0,  999.0,  999.0,  999.0,  999.0,  999.0,  999.0,  999.0,  999.0,  999.0,  999.0,  999.0,  999.0,  999.0,   -0.2,  999.0,  999.0,   -0.2,  999.0,  999.0,   -0.3,  999.0
2012/01/21 03:20,  999.0,  999.0,   -2.1,   -1.9,   -1.9,   -1.4,   -1.1,   -1.1,   -1.0,   -0.9,   -0.8,   -0.7,   -0.5,   -0.4,   -0.4,   -0.2,   -0.4,   -0.1,    0.0,    0.1,    0.1,    0.2,    0.1,    0.1,   -0.0,   -0.1,   -0.0,    0.0,   -0.0,    0.1,    0.1,    0.0,  999.0,  999.0,  999.0,  999.0,  999.0,  999.0,  999.0,  999.0,  999.0,  999.0,  999.0,  999.0,  999.0,  999.0,  999.0,  999.0,  999.0,   -0.2,   -0.1,  999.0,  999.0,  999.0,  999.0,  999.0,  999.0,  999.0,  999.0,  999.0,  999.0,  999.0,  999.0,  999.0,  999.0,  999.0,  999.0,  999.0,  999.0,  999.0,  999.0,  999.0,  999.0,  999.0,  999.0,  999.0,  999.0,  999.0,  999.0,  999.0
2012/01/21 03:30,   -2.4,   -2.4,   -2.4,   -2.5,   -2.0,   -1.5,   -1.4,   -1.4,   -1.4,   -1.4,   -1.3,   -1.2,   -1.0,   -0.9,   -0.7,   -0.5,   -0.3,   -0.2,    0.0,    0.1,    0.1,   -0.0,   -0.2,   -0.3,   -0.4,   -0.4,   -0.3,   -0.2,   -0.1,    0.1,    0.1,    0.1,    0.1,  999.0,  999.0,  999.0,  999.0,  999.0,  999.0,  999.0,  999.0,  999.0,  999.0,  999.0,  999.0,  999.0,  999.0,  999.0,    0.2,    0.0,  999.0,  999.0,  999.0,  999.0,  999.0,  999.0,  999.0,  999.0,  999.0,  999.0,  999.0,  999.0,  999.0,  999.0,  999.0,  999.0,  999.0,  999.0,  999.0,  999.0,  999.0,  999.0,  999.0,  999.0,  999.0,  999.0,  999.0,  999.0,  999.0,  999.0
2012/01/21 03:40,  999.0,   -4.0,  999.0,   -3.5,   -2.2,   -1.7,   -1.8,   -1.7,   -1.7,   -1.5,   -1.5,   -1.5,   -1.2,   -1.0,   -0.7,   -0.5,   -0.4,   -0.4,   -0.3,   -0.6,   -0.5,   -0.4,   -0.5,   -0.6,   -0.6,   -0.5,   -0.4,   -0.3,   -0.2,   -0.0,    0.1,    0.1,    0.1,  999.0,  999.0,  999.0,  999.0,  999.0,  999.0,  999.0,  999.0,  999.0,  999.0,  999.0,  999.0,  999.0,  999.0,   -0.0,    0.0,  999.0,  999.0,  999.0,  999.0,  999.0,  999.0,  999.0,  999.0,  999.0,  999.0,  999.0,  999.0,  999.0,  999.0,  999.0,  999.0,  999.0,  999.0,  999.0,  999.0,  999.0,  999.0,  999.0,  999.0,  999.0,  999.0,  999.0,  999.0,  999.0,  999.0,  999.0
2012/01/21 03:50,   -4.0,   -4.2,   -3.7,   -3.4,  999.0,   -1.8,   -1.6,   -1.5,   -1.4,   -1.4,   -1.3,   -1.1,   -1.0,   -0.8,   -0.6,   -0.5,   -0.4,   -0.4,   -0.6,   -0.7,   -0.7,   -0.5,   -0.4,   -0.4,   -0.4,   -0.4,   -0.4,   -0.2,   -0.2,   -0.1,    0.1,    0.0,  999.0,  999.0,  999.0,  999.0,  999.0,  999.0,  999.0,  999.0,  999.0,  999.0,  999.0,  999.0,  999.0,  999.0,  999.0,    0.2,   -0.2,  999.0,  999.0,  999.0,  999.0,  999.0,  999.0,  999.0,  999.0,  999.0,  999.0,  999.0,  999.0,  999.0,  999.0,  999.0,  999.0,  999.0,  999.0,  999.0,  999.0,  999.0,  999.0,  999.0,  999.0,  999.0,  999.0,  999.0,  999.0,  999.0,  999.0,  999.0
2012/01/21 04:00,  999.0,  999.0,   -3.0,   -3.9,   -2.2,   -1.8,   -1.4,   -1.4,   -1.3,   -1.2,   -1.1,   -0.9,   -0.8,   -0.8,   -0.8,   -0.7,   -0.8,   -0.8,   -1.0,   -0.9,   -0.6,   -0.3,   -0.4,   -0.7,   -0.7,   -0.6,   -0.6,   -0.4,   -0.3,   -0.3,   -0.3,   -0.2,  999.0,  999.0,  999.0,  999.0,  999.0,  999.0,  999.0,  999.0,  999.0,  999.0,  999.0,  999.0,  999.0,  999.0,  999.0,  999.0,    0.1,  999.0,  999.0,  999.0,  999.0,  999.0,  999.0,  999.0,  999.0,  999.0,  999.0,  999.0,  999.0,  999.0,  999.0,  999.0,  999.0,  999.0,  999.0,  999.0,  999.0,  999.0,  999.0,  999.0,  999.0,  999.0,  999.0,  999.0,  999.0,  999.0,  999.0,  999.0
2012/01/21 04:10,   -4.5,   -3.9,   -3.4,   -3.4,   -2.0,  999.0,   -1.3,   -1.3,   -1.2,   -1.1,   -0.9,   -0.8,   -0.7,   -0.6,   -0.6,   -0.5,   -0.4,   -0.4,   -0.3,   -0.1,    0.1,    0.1,   -0.0,   -0.1,   -0.2,   -0.1,   -0.1,   -0.0,    0.0,    0.0,    0.1,  999.0,  999.0,  999.0,  999.0,  999.0,  999.0,  999.0,  999.0,  999.0,  999.0,  999.0,  999.0,  999.0,  999.0,  999.0,  999.0,  999.0,  999.0,  999.0,  999.0,  999.0,  999.0,  999.0,  999.0,  999.0,  999.0,  999.0,  999.0,  999.0,  999.0,  999.0,  999.0,  999.0,  999.0,  999.0,  999.0,  999.0,  999.0,  999.0,  999.0,  999.0,  999.0,  999.0,  999.0,  999.0,  999.0,  999.0,  999.0,  999.0
2012/01/21 04:20,   -4.6,  999.0,   -2.7,   -3.4,  999.0,   -1.5,   -1.4,   -1.4,   -1.3,   -1.2,   -1.1,   -0.9,   -0.8,   -0.7,   -0.5,   -0.5,   -0.4,   -0.4,   -0.3,   -0.0,    0.2,    0.2,    0.2,    0.2,    0.2,    0.1,    0.2,    0.2,    0.2,    0.2,    0.3,  999.0,  999.0,  999.0,  999.0,  999.0,  999.0,  999.0,  999.0,  999.0,  999.0,  999.0,  999.0,  999.0,  999.0,  999.0,  999.0,  999.0,  999.0,  999.0,  999.0,  999.0,  999.0,  999.0,  999.0,  999.0,  999.0,  999.0,  999.0,  999.0,  999.0,  999.0,  999.0,  999.0,  999.0,  999.0,  999.0,  999.0,  999.0,  999.0,  999.0,  999.0,  999.0,  999.0,  999.0,  999.0,  999.0,  999.0,  999.0,  999.0
2012/01/21 04:30,  999.0,  999.0,   -3.7,   -3.4,  999.0,   -1.5,   -1.4,   -1.3,   -1.2,   -1.1,   -1.0,   -0.9,   -0.7,   -0.7,   -0.6,   -0.5,   -0.3,   -0.3,   -0.2,   -0.1,    0.0,    0.1,   -0.0,   -0.1,   -0.0,    0.0,   -0.1,   -0.1,   -0.1,   -0.1,   -0.1,  999.0,  999.0,  999.0,  999.0,  999.0,  999.0,  999.0,   -0.1,  999.0,   -0.3,    0.0,   -0.3,  999.0,  999.0,  999.0,  999.0,  999.0,  999.0,  999.0,  999.0,  999.0,  999.0,  999.0,  999.0,  999.0,  999.0,  999.0,  999.0,  999.0,  999.0,  999.0,  999.0,  999.0,  999.0,  999.0,  999.0,  999.0,  999.0,  999.0,  999.0,  999.0,  999.0,  999.0,  999.0,  999.0,  999.0,  999.0,  999.0,  999.0
2012/01/21 04:40,   -3.6,   -3.7,   -3.7,   -3.1,   -1.8,   -1.4,   -1.3,   -1.2,   -1.1,   -1.0,   -0.9,   -0.8,   -0.7,   -0.5,   -0.4,   -0.3,   -0.2,   -0.1,    0.0,    0.0,    0.1,    0.2,    0.2,    0.2,    0.2,    0.1,  999.0,    0.0,    0.1,    0.2,    0.1,  999.0,  999.0,  999.0,  999.0,  999.0,  999.0,  999.0,  999.0,  999.0,   -0.1,  999.0,  999.0,  999.0,   -0.1,    0.1,  999.0,  999.0,  999.0,  999.0,  999.0,  999.0,  999.0,  999.0,  999.0,  999.0,  999.0,  999.0,  999.0,  999.0,  999.0,  999.0,  999.0,  999.0,  999.0,  999.0,  999.0,  999.0,  999.0,  999.0,  999.0,  999.0,  999.0,  999.0,  999.0,  999.0,  999.0,  999.0,  999.0,  999.0
2012/01/21 04:50,   -3.5,   -3.5,   -3.7,   -2.9,   -1.8,   -1.6,   -1.6,   -1.5,   -1.6,   -1.4,   -1.4,   -1.1,   -1.1,   -1.0,   -0.8,   -0.5,   -0.3,   -0.4,   -0.5,   -0.4,   -0.3,   -0.1,    0.1,   -0.0,    0.1,    0.1,   -0.1,   -0.1,   -0.2,   -0.3,   -0.2,  999.0,  999.0,  999.0,  999.0,  999.0,  999.0,  999.0,  999.0,  999.0,  999.0,  999.0,  999.0,    0.3,   -0.1,    0.0,  999.0,  999.0,  999.0,  999.0,  999.0,  999.0,  999.0,  999.0,  999.0,  999.0,  999.0,  999.0,  999.0,  999.0,  999.0,  999.0,  999.0,  999.0,  999.0,  999.0,  999.0,  999.0,  999.0,  999.0,  999.0,  999.0,  999.0,  999.0,  999.0,  999.0,  999.0,  999.0,  999.0,  999.0
2012/01/21 05:00,   -3.7,   -3.7,   -3.6,   -2.9,   -1.9,   -1.5,   -1.4,   -1.4,   -1.4,   -1.3,   -1.1,   -1.1,   -0.9,   -0.8,   -0.7,   -0.6,   -0.6,   -0.7,   -0.8,   -1.0,   -0.9,   -1.0,   -0.8,   -0.8,   -0.8,   -0.6,   -0.5,   -0.4,   -0.3,   -0.1,   -0.3,  999.0,  999.0,  999.0,  999.0,  999.0,  999.0,  999.0,  999.0,  999.0,  999.0,  999.0,  999.0,  999.0,  999.0,  999.0,  999.0,  999.0,  999.0,  999.0,  999.0,  999.0,  999.0,  999.0,  999.0,  999.0,  999.0,  999.0,  999.0,  999.0,  999.0,  999.0,  999.0,  999.0,  999.0,  999.0,  999.0,  999.0,  999.0,  999.0,  999.0,  999.0,  999.0,  999.0,  999.0,  999.0,  999.0,  999.0,  999.0,  999.0
2012/01/21 05:10,  999.0,  999.0,  999.0,  999.0,   -1.9,   -1.3,   -1.2,   -1.0,   -0.9,   -0.8,   -0.7,   -0.6,   -0.6,   -0.9,   -1.0,   -1.0,   -1.1,   -0.9,   -0.6,   -0.7,   -0.5,   -0.4,   -0.4,   -0.4,   -0.5,   -0.6,   -0.6,   -0.4,   -0.2,   -0.1,    0.1,  999.0,  999.0,  999.0,  999.0,  999.0,  999.0,  999.0,  999.0,  999.0,  999.0,  999.0,  999.0,  999.0,  999.0,  999.0,  999.0,  999.0,  999.0,  999.0,  999.0,  999.0,  999.0,  999.0,  999.0,  999.0,  999.0,  999.0,  999.0,  999.0,  999.0,  999.0,  999.0,  999.0,  999.0,  999.0,  999.0,  999.0,  999.0,  999.0,  999.0,  999.0,  999.0,  999.0,  999.0,  999.0,  999.0,  999.0,  999.0,  999.0
2012/01/21 05:20,  999.0,  999.0,  999.0,  999.0,   -1.4,   -0.9,   -0.9,   -1.0,   -1.0,   -1.1,   -1.0,   -1.0,   -0.9,   -0.8,   -0.8,   -0.8,   -0.8,   -0.8,   -0.8,   -0.8,   -0.8,   -0.7,   -0.7,   -0.4,   -0.6,   -0.6,   -0.5,   -0.5,   -0.3,   -0.1,  999.0,  999.0,  999.0,  999.0,  999.0,  999.0,  999.0,  999.0,  999.0,  999.0,  999.0,  999.0,  999.0,  999.0,  999.0,  999.0,  999.0,  999.0,  999.0,  999.0,  999.0,  999.0,  999.0,  999.0,  999.0,  999.0,  999.0,  999.0,  999.0,  999.0,  999.0,  999.0,  999.0,  999.0,  999.0,  999.0,  999.0,  999.0,  999.0,  999.0,  999.0,  999.0,  999.0,  999.0,  999.0,  999.0,  999.0,  999.0,  999.0,  999.0
2012/01/21 05:30,  999.0,  999.0,  999.0,   -1.7,   -1.3,   -1.0,   -1.1,   -1.1,   -1.0,   -1.0,   -0.9,   -0.9,   -0.9,   -0.9,   -0.8,   -0.8,   -0.9,   -0.8,   -0.7,   -0.7,   -0.6,   -0.5,   -0.4,   -0.4,   -0.3,   -0.4,   -0.5,   -0.4,   -0.1,   -0.2,   -0.1,  999.0,  999.0,  999.0,  999.0,  999.0,  999.0,  999.0,  999.0,  999.0,  999.0,  999.0,  999.0,  999.0,  999.0,  999.0,  999.0,  999.0,  999.0,  999.0,  999.0,  999.0,  999.0,  999.0,  999.0,  999.0,  999.0,  999.0,  999.0,  999.0,  999.0,  999.0,  999.0,  999.0,  999.0,  999.0,  999.0,  999.0,  999.0,  999.0,  999.0,  999.0,  999.0,  999.0,  999.0,  999.0,    0.4,    0.4,  999.0,  999.0
2012/01/21 05:40,  999.0,  999.0,  999.0,   -1.7,   -1.3,   -1.1,   -1.0,   -1.0,   -0.9,   -0.8,   -0.7,   -0.7,   -0.8,   -0.8,   -0.8,   -0.8,   -0.8,   -0.7,   -0.7,   -0.6,   -0.4,   -0.2,   -0.0,    0.1,    0.1,    0.0,   -0.1,   -0.1,    0.1,    0.1,   -0.1,  999.0,  999.0,  999.0,  999.0,   -0.0,  999.0,  999.0,  999.0,  999.0,  999.0,  999.0,  999.0,  999.0,  999.0,  999.0,  999.0,  999.0,  999.0,  999.0,  999.0,  999.0,  999.0,  999.0,  999.0,  999.0,  999.0,  999.0,  999.0,  999.0,  999.0,  999.0,  999.0,  999.0,  999.0,  999.0,  999.0,  999.0,  999.0,  999.0,  999.0,  999.0,  999.0,  999.0,  999.0,  999.0,  999.0,  999.0,  999.0,  999.0
2012/01/21 05:50,  999.0,  999.0,   -2.6,   -2.1,   -1.5,   -1.2,   -1.2,   -1.1,   -1.1,   -1.1,   -1.2,   -1.1,   -0.9,   -0.9,   -0.8,   -0.8,   -0.9,   -0.8,   -0.4,   -0.4,   -0.4,   -0.2,   -0.2,   -0.3,   -0.3,   -0.4,   -0.4,   -0.2,   -0.1,   -0.2,   -0.0,  999.0,  999.0,  999.0,  999.0,   -0.0,  999.0,  999.0,  999.0,  999.0,  999.0,  999.0,  999.0,  999.0,  999.0,  999.0,  999.0,  999.0,  999.0,  999.0,  999.0,  999.0,  999.0,  999.0,  999.0,  999.0,  999.0,  999.0,  999.0,  999.0,  999.0,  999.0,  999.0,  999.0,  999.0,  999.0,  999.0,  999.0,  999.0,  999.0,  999.0,  999.0,  999.0,  999.0,  999.0,  999.0,  999.0,  999.0,  999.0,  999.0
2012/01/21 06:00,  999.0,  999.0,  999.0,   -2.0,   -1.5,   -1.3,   -1.3,   -1.2,   -1.2,   -1.3,   -1.0,   -0.8,   -0.8,   -1.0,   -1.0,   -0.6,   -0.7,   -0.6,   -0.8,   -0.9,   -0.9,   -0.7,   -0.6,   -0.6,   -0.4,   -0.5,   -0.3,   -0.1,   -0.2,   -0.0,   -0.1,  999.0,  999.0,  999.0,  999.0,  999.0,  999.0,  999.0,  999.0,  999.0,  999.0,  999.0,  999.0,  999.0,  999.0,  999.0,  999.0,  999.0,  999.0,  999.0,  999.0,  999.0,  999.0,  999.0,  999.0,  999.0,  999.0,  999.0,  999.0,  999.0,  999.0,  999.0,  999.0,  999.0,  999.0,  999.0,  999.0,  999.0,  999.0,  999.0,  999.0,  999.0,  999.0,  999.0,  999.0,  999.0,  999.0,  999.0,  999.0,  999.0
2012/01/21 06:10,  999.0,  999.0,   -2.8,   -2.2,   -1.7,   -1.5,   -1.4,   -1.3,   -1.3,   -1.3,   -1.2,   -1.1,   -1.1,   -0.9,   -0.9,   -1.0,   -0.9,   -0.9,   -0.8,   -0.7,   -0.6,   -0.5,   -0.3,   -0.3,   -0.3,   -0.2,   -0.3,   -0.3,   -0.1,   -0.1,    0.0,    0.0,  999.0,  999.0,  999.0,  999.0,  999.0,  999.0,  999.0,  999.0,  999.0,  999.0,  999.0,  999.0,  999.0,  999.0,  999.0,  999.0,  999.0,  999.0,  999.0,  999.0,  999.0,  999.0,  999.0,  999.0,  999.0,  999.0,  999.0,  999.0,  999.0,  999.0,  999.0,  999.0,  999.0,  999.0,  999.0,  999.0,  999.0,  999.0,  999.0,  999.0,  999.0,  999.0,  999.0,  999.0,  999.0,  999.0,  999.0,  999.0
2012/01/21 06:20,  999.0,  999.0,  999.0,   -2.0,   -1.6,   -1.4,   -1.4,   -1.4,   -1.3,   -1.2,   -1.1,   -1.0,   -1.1,   -1.1,   -1.2,   -1.2,   -1.3,   -1.3,   -1.3,   -1.2,   -1.1,   -0.9,   -0.7,   -0.6,   -0.5,   -0.4,   -0.3,   -0.0,    0.1,    0.0,    0.4,    0.1,   -0.0,  999.0,  999.0,  999.0,  999.0,  999.0,  999.0,  999.0,  999.0,  999.0,  999.0,  999.0,  999.0,  999.0,  999.0,  999.0,  999.0,  999.0,  999.0,  999.0,  999.0,  999.0,  999.0,  999.0,  999.0,  999.0,  999.0,  999.0,  999.0,  999.0,  999.0,  999.0,  999.0,  999.0,  999.0,  999.0,  999.0,  999.0,  999.0,  999.0,  999.0,  999.0,  999.0,  999.0,  999.0,  999.0,  999.0,  999.0
2012/01/21 06:30,  999.0,  999.0,  999.0,   -2.3,   -1.6,   -1.5,   -1.4,   -1.2,   -1.1,   -0.9,   -0.7,   -0.6,   -0.7,   -0.8,   -0.8,   -0.8,   -0.8,   -0.7,   -0.6,   -0.6,   -0.6,   -0.6,   -0.4,   -0.5,   -0.6,   -0.6,   -0.4,   -0.4,   -0.2,   -0.4,   -0.2,  999.0,   -0.1,  999.0,  999.0,  999.0,  999.0,  999.0,   -0.0,  999.0,  999.0,  999.0,  999.0,  999.0,  999.0,  999.0,  999.0,  999.0,  999.0,  999.0,  999.0,  999.0,  999.0,  999.0,  999.0,  999.0,  999.0,  999.0,  999.0,  999.0,  999.0,  999.0,  999.0,  999.0,  999.0,  999.0,  999.0,  999.0,   -0.6,   -0.6,   -0.6,   -0.6,   -0.6,  999.0,   -0.6,   -0.6,   -0.6,   -0.6,   -0.6,   -0.6
2012/01/21 06:40,  999.0,  999.0,  999.0,   -2.4,   -1.7,   -1.4,   -1.2,   -1.2,   -1.0,   -0.9,   -0.8,   -0.7,   -0.6,   -0.6,   -0.6,   -0.5,   -0.4,   -0.4,   -0.4,   -0.4,   -0.3,   -0.3,   -0.6,   -0.6,   -0.6,   -0.6,   -0.4,   -0.2,   -0.1,    0.0,    0.1,    0.1,  999.0,  999.0,  999.0,  999.0,  999.0,  999.0,  999.0,  999.0,  999.0,  999.0,  999.0,  999.0,  999.0,  999.0,  999.0,  999.0,  999.0,  999.0,  999.0,  999.0,  999.0,  999.0,  999.0,  999.0,  999.0,  999.0,  999.0,  999.0,  999.0,  999.0,  999.0,  999.0,  999.0,  999.0,  999.0,  999.0,  999.0,  999.0,  999.0,  999.0,  999.0,  999.0,   -0.6,  999.0,  999.0,   -0.6,  999.0,   -0.6
2012/01/21 06:50,  999.0,  999.0,  999.0,   -2.4,   -1.8,   -1.5,   -1.4,   -1.3,   -1.2,   -1.2,   -1.1,   -1.0,   -1.0,   -1.0,   -1.0,   -0.9,   -0.9,   -0.9,   -0.8,   -0.8,   -0.8,   -0.7,   -0.7,   -0.7,   -0.7,   -0.6,   -0.6,   -0.5,   -0.2,   -0.1,    0.0,    0.1,  999.0,  999.0,  999.0,  999.0,  999.0,  999.0,  999.0,  999.0,  999.0,  999.0,  999.0,  999.0,  999.0,  999.0,  999.0,  999.0,  999.0,  999.0,  999.0,  999.0,  999.0,  999.0,  999.0,  999.0,  999.0,  999.0,  999.0,  999.0,  999.0,  999.0,  999.0,  999.0,  999.0,  999.0,  999.0,  999.0,  999.0,  999.0,  999.0,  999.0,  999.0,  999.0,   -0.6,  999.0,  999.0,  999.0,  999.0,  999.0
2012/01/21 07:00,  999.0,  999.0,  999.0,   -2.5,   -2.0,   -1.8,   -1.7,   -1.7,   -1.6,   -1.6,   -1.5,   -1.4,   -1.3,   -1.3,   -1.2,   -1.1,   -1.0,   -0.9,   -0.9,   -0.8,   -0.7,   -0.6,   -0.7,   -0.8,   -0.7,   -0.6,   -0.5,   -0.4,   -0.4,   -0.3,   -0.1,   -0.1,  999.0,  999.0,  999.0,  999.0,  999.0,  999.0,    0.0,  999.0,  999.0,  999.0,  999.0,  999.0,  999.0,  999.0,  999.0,  999.0,  999.0,  999.0,  999.0,  999.0,  999.0,  999.0,  999.0,  999.0,  999.0,  999.0,  999.0,  999.0,  999.0,  999.0,  999.0,  999.0,  999.0,  999.0,  999.0,  999.0,  999.0,  999.0,  999.0,   -0.5,  999.0,   -0.5,   -0.5,   -0.5,  999.0,  999.0,   -0.5,   -0.5
2012/01/21 07:10,  999.0,  999.0,  999.0,   -2.4,   -1.8,   -1.6,   -1.7,   -1.6,   -1.4,   -1.1,   -1.1,   -1.2,   -1.3,   -1.4,   -1.3,   -1.3,   -1.2,   -1.1,   -0.9,   -0.7,   -0.5,   -0.5,   -0.7,   -0.7,   -0.8,   -0.6,   -0.5,   -0.4,   -0.3,   -0.1,  999.0,  999.0,  999.0,  999.0,  999.0,  999.0,  999.0,  999.0,  999.0,  999.0,   -0.1,  999.0,  999.0,  999.0,  999.0,  999.0,  999.0,  999.0,  999.0,  999.0,  999.0,  999.0,  999.0,  999.0,  999.0,  999.0,  999.0,   -0.7,   -0.4,   -0.7,   -0.7,   -0.6,   -0.5,   -0.6,   -0.5,   -0.5,  999.0,  999.0,  999.0,  999.0,  999.0,  999.0,  999.0,  999.0,  999.0,  999.0,  999.0,  999.0,  999.0,  999.0
2012/01/21 07:20,  999.0,  999.0,  999.0,   -2.3,   -1.8,   -1.7,   -1.8,   -1.8,   -1.6,   -1.3,   -1.2,   -1.0,   -0.8,   -0.5,   -0.2,   -0.2,   -0.4,   -0.3,   -0.1,   -0.1,   -0.0,   -0.1,   -0.2,   -0.5,   -0.5,   -0.5,   -0.5,   -0.4,   -0.2,   -0.1,   -0.0,  999.0,   -0.1,  999.0,    0.2,  999.0,  999.0,  999.0,  999.0,  999.0,    0.1,  999.0,  999.0,  999.0,  999.0,  999.0,  999.0,  999.0,  999.0,  999.0,  999.0,  999.0,  999.0,  999.0,   -0.7,   -0.6,   -0.5,   -0.5,   -0.5,   -0.5,   -0.4,   -0.4,   -0.5,   -0.4,   -0.4,   -0.3,   -0.4,   -0.3,   -0.6,  999.0,  999.0,  999.0,  999.0,  999.0,  999.0,  999.0,  999.0,  999.0,  999.0,  999.0
2012/01/21 07:30,  999.0,  999.0,  999.0,  999.0,   -1.4,   -1.1,   -1.0,   -1.0,   -0.9,   -0.7,   -0.5,   -0.5,   -0.4,   -0.2,    0.1,    0.3,    0.4,    0.2,    0.2,    0.1,    0.0,   -0.0,   -0.1,   -0.4,   -0.6,   -0.7,   -0.7,   -0.6,   -0.5,   -0.4,   -0.3,   -0.1,   -0.1,  999.0,  999.0,  999.0,  999.0,  999.0,  999.0,  999.0,    0.2,  999.0,  999.0,  999.0,  999.0,  999.0,  999.0,  999.0,  999.0,   -0.5,   -0.8,   -0.9,   -0.6,   -0.7,   -0.6,   -0.6,   -0.5,   -0.5,   -0.6,   -0.5,   -0.5,   -0.5,   -0.4,   -0.6,   -0.6,  999.0,  999.0,   -0.4,   -0.0,  999.0,  999.0,  999.0,  999.0,  999.0,  999.0,  999.0,  999.0,  999.0,  999.0,  999.0
2012/01/21 07:40,  999.0,   -2.1,   -2.2,   -1.9,   -1.7,   -1.4,   -1.2,   -1.1,   -1.0,   -0.9,   -0.9,   -0.9,   -0.8,   -0.8,   -0.5,   -0.5,   -0.9,   -1.3,   -0.8,   -0.7,   -0.6,   -0.7,   -0.8,   -0.9,   -1.0,   -1.0,   -1.0,   -0.9,   -0.9,   -0.7,   -0.5,   -0.3,   -0.3,  999.0,  999.0,  999.0,  999.0,  999.0,  999.0,    0.1,  999.0,  999.0,  999.0,  999.0,  999.0,  999.0,  999.0,    0.2,   -0.2,   -0.4,   -0.4,   -0.8,   -0.6,   -0.7,   -0.6,   -0.7,   -0.6,   -0.7,   -0.7,   -0.6,   -0.6,   -0.5,   -0.6,   -0.3,   -0.6,   -0.2,  999.0,  999.0,  999.0,  999.0,  999.0,  999.0,  999.0,  999.0,  999.0,  999.0,  999.0,  999.0,  999.0,  999.0
2012/01/21 07:50,   -2.3,   -2.2,   -2.3,   -2.3,   -1.9,   -1.7,   -1.6,   -1.6,   -1.6,   -1.5,   -1.5,   -1.5,   -1.7,   -1.7,   -1.5,   -1.4,   -1.3,   -1.2,   -1.1,   -1.1,   -1.0,   -1.0,   -0.9,   -1.0,   -1.0,   -0.9,   -0.9,   -0.8,   -0.7,   -0.5,   -0.4,   -0.2,    0.0,    0.1,  999.0,  999.0,  999.0,  999.0,  999.0,    0.0,  999.0,  999.0,  999.0,  999.0,  999.0,  999.0,  999.0,  999.0,   -0.6,   -0.8,   -1.0,   -0.9,   -0.9,   -0.9,   -0.8,   -0.9,   -0.9,   -0.8,   -0.9,   -0.7,   -0.8,   -0.6,  999.0,  999.0,  999.0,  999.0,  999.0,  999.0,  999.0,  999.0,  999.0,  999.0,  999.0,  999.0,  999.0,  999.0,  999.0,  999.0,  999.0,  999.0
2012/01/21 08:00,   -2.0,   -2.3,  999.0,   -2.6,   -2.1,   -1.8,   -1.8,   -1.9,   -1.8,   -1.7,   -1.6,   -1.6,   -1.6,   -1.5,   -1.4,   -1.2,   -1.2,   -1.1,   -1.1,   -1.1,   -1.0,   -1.0,   -0.9,   -1.0,   -1.0,   -1.0,   -0.9,   -0.9,   -0.8,   -0.6,   -0.5,   -0.3,   -0.2,   -0.1,  999.0,  999.0,  999.0,  999.0,  999.0,  999.0,    0.2,  999.0,  999.0,  999.0,  999.0,  999.0,  999.0,  999.0,  999.0,  999.0,  999.0,  999.0,  999.0,  999.0,  999.0,  999.0,  999.0,  999.0,  999.0,  999.0,  999.0,  999.0,  999.0,  999.0,  999.0,   -0.4,  999.0,  999.0,  999.0,  999.0,  999.0,  999.0,  999.0,  999.0,  999.0,  999.0,  999.0,  999.0,  999.0,  999.0
2012/01/21 08:10,   -3.2,   -3.0,   -3.3,  999.0,  999.0,   -1.5,   -1.5,   -1.5,   -1.4,   -1.3,   -1.2,   -1.3,   -1.3,   -1.2,   -1.2,   -1.1,   -1.0,   -1.0,   -0.9,   -0.8,   -0.8,   -0.8,   -0.8,   -0.8,   -0.8,   -0.9,   -0.8,   -0.8,   -0.7,   -0.6,   -0.4,   -0.3,   -0.2,  999.0,  999.0,  999.0,  999.0,  999.0,  999.0,  999.0,  999.0,  999.0,  999.0,  999.0,  999.0,  999.0,  999.0,  999.0,  999.0,  999.0,  999.0,  999.0,  999.0,  999.0,  999.0,  999.0,  999.0,  999.0,  999.0,  999.0,  999.0,  999.0,  999.0,  999.0,  999.0,  999.0,  999.0,  999.0,  999.0,  999.0,  999.0,  999.0,  999.0,  999.0,  999.0,  999.0,  999.0,  999.0,  999.0,  999.0
2012/01/21 08:20,  999.0,  999.0,  999.0,   -2.3,   -1.5,   -1.2,   -1.2,   -1.1,   -1.0,   -1.1,   -1.1,   -1.1,   -1.2,   -1.2,   -1.3,   -1.3,   -1.3,   -1.2,   -1.2,   -1.1,   -1.1,   -1.0,   -1.0,   -1.0,   -0.9,   -0.9,   -0.9,   -0.8,   -0.8,   -0.7,   -0.6,   -0.4,   -0.2,  999.0,  999.0,  999.0,  999.0,  999.0,  999.0,  999.0,  999.0,  999.0,  999.0,  999.0,  999.0,  999.0,  999.0,  999.0,  999.0,  999.0,  999.0,  999.0,  999.0,  999.0,  999.0,  999.0,  999.0,  999.0,  999.0,  999.0,  999.0,  999.0,  999.0,  999.0,  999.0,  999.0,  999.0,  999.0,  999.0,  999.0,  999.0,  999.0,  999.0,  999.0,  999.0,  999.0,  999.0,  999.0,  999.0,  999.0
2012/01/21 08:30,   -4.3,   -4.8,  999.0,   -2.4,   -1.6,   -1.4,   -1.4,   -1.3,   -1.2,   -1.2,   -1.1,   -1.0,   -1.0,   -1.0,   -1.0,   -0.9,   -0.9,   -0.9,   -0.9,   -0.8,   -0.7,   -0.6,   -0.7,   -0.7,   -0.6,   -0.5,   -0.4,   -0.5,   -0.5,   -0.5,   -0.3,   -0.0,  999.0,  999.0,  999.0,  999.0,  999.0,  999.0,  999.0,  999.0,  999.0,  999.0,  999.0,  999.0,  999.0,  999.0,  999.0,  999.0,  999.0,  999.0,  999.0,  999.0,  999.0,  999.0,  999.0,  999.0,  999.0,  999.0,  999.0,  999.0,  999.0,  999.0,  999.0,  999.0,  999.0,  999.0,  999.0,  999.0,  999.0,  999.0,  999.0,  999.0,  999.0,  999.0,  999.0,  999.0,  999.0,  999.0,  999.0,  999.0
2012/01/21 08:40,   -4.8,  999.0,  999.0,  999.0,  999.0,   -1.3,   -1.2,   -1.2,   -1.0,   -0.9,   -0.9,   -0.9,   -0.9,   -0.9,   -0.9,   -0.8,   -0.8,   -0.7,   -0.6,   -0.4,   -0.3,   -0.2,   -0.1,   -0.0,    0.1,    0.1,    0.1,  999.0,  999.0,  999.0,    0.0,   -0.0,    0.2,  999.0,  999.0,  999.0,  999.0,  999.0,   -0.1,    0.1,  999.0,   -0.0,  999.0,  999.0,  999.0,  999.0,  999.0,  999.0,  999.0,  999.0,  999.0,  999.0,  999.0,  999.0,  999.0,  999.0,  999.0,  999.0,  999.0,  999.0,  999.0,  999.0,  999.0,  999.0,  999.0,  999.0,  999.0,  999.0,  999.0,  999.0,  999.0,  999.0,  999.0,    0.1,    0.1,  999.0,  999.0,  999.0,  999.0,  999.0
2012/01/21 08:50,   -4.9,  999.0,  999.0,   -2.3,  999.0,   -1.3,   -1.3,   -1.2,   -1.1,   -1.0,   -0.9,   -0.9,   -0.9,   -0.9,   -0.9,   -0.9,   -0.8,   -0.7,   -0.7,   -0.5,   -0.4,   -0.1,   -0.2,   -0.2,   -0.0,    0.0,  999.0,  999.0,  999.0,  999.0,  999.0,    0.2,    0.0,    0.1,  999.0,  999.0,  999.0,  999.0,   -0.3,   -0.0,  999.0,   -0.0,   -0.1,  999.0,  999.0,  999.0,  999.0,  999.0,  999.0,  999.0,  999.0,  999.0,  999.0,  999.0,  999.0,  999.0,  999.0,  999.0,  999.0,  999.0,  999.0,  999.0,  999.0,  999.0,  999.0,  999.0,  999.0,  999.0,  999.0,  999.0,  999.0,  999.0,  999.0,  999.0,  999.0,  999.0,  999.0,  999.0,  999.0,  999.0
2012/01/21 09:00,  999.0,  999.0,  999.0,  999.0,  999.0,   -1.2,   -1.0,   -1.0,   -0.8,   -0.8,   -0.8,   -0.8,   -0.8,   -0.8,   -0.7,   -0.7,   -0.6,   -0.4,   -0.3,   -0.3,   -0.2,   -0.1,   -0.1,   -0.1,   -0.0,   -0.0,  999.0,  999.0,  999.0,  999.0,   -0.1,   -0.1,   -0.1,   -0.0,  999.0,  999.0,  999.0,  999.0,   -0.1,  999.0,  999.0,    0.0,  999.0,  999.0,  999.0,  999.0,  999.0,  999.0,  999.0,  999.0,  999.0,  999.0,  999.0,  999.0,  999.0,  999.0,  999.0,  999.0,  999.0,  999.0,  999.0,  999.0,  999.0,  999.0,  999.0,  999.0,  999.0,  999.0,  999.0,  999.0,  999.0,  999.0,  999.0,  999.0,  999.0,  999.0,  999.0,  999.0,  999.0,  999.0
2012/01/21 09:10,  999.0,  999.0,  999.0,  999.0,  999.0,  999.0,   -0.9,   -0.8,   -0.6,   -0.6,   -0.6,   -0.6,   -0.5,   -0.7,   -0.7,   -0.6,   -0.5,   -0.4,   -0.2,   -0.2,   -0.2,   -0.2,   -0.1,   -0.1,    0.0,    0.0,   -0.2,   -0.1,  999.0,  999.0,   -0.1,    0.0,    0.1,   -0.0,  999.0,  999.0,  999.0,  999.0,  999.0,  999.0,  999.0,  999.0,  999.0,  999.0,  999.0,  999.0,  999.0,  999.0,  999.0,  999.0,  999.0,  999.0,  999.0,  999.0,  999.0,  999.0,  999.0,  999.0,  999.0,  999.0,  999.0,  999.0,  999.0,  999.0,  999.0,  999.0,  999.0,  999.0,  999.0,  999.0,  999.0,  999.0,  999.0,  999.0,    0.3,  999.0,  999.0,    0.3,  999.0,  999.0
2012/01/21 09:20,  999.0,  999.0,  999.0,   -2.3,   -1.4,   -1.0,   -1.0,   -1.0,   -0.9,   -0.9,   -0.8,   -0.7,   -0.5,   -0.5,   -0.3,   -0.3,   -0.1,    0.1,    0.1,    0.1,   -0.1,   -0.1,   -0.2,   -0.1,   -0.1,    0.0,   -0.1,  999.0,  999.0,  999.0,    0.0,   -0.0,   -0.0,    0.0,   -0.0,  999.0,    0.0,   -0.1,  999.0,  999.0,  999.0,  999.0,  999.0,  999.0,  999.0,  999.0,  999.0,  999.0,  999.0,  999.0,  999.0,  999.0,  999.0,  999.0,  999.0,  999.0,  999.0,  999.0,  999.0,  999.0,   -0.5,  999.0,   -0.4,  999.0,  999.0,  999.0,  999.0,  999.0,  999.0,  999.0,  999.0,  999.0,  999.0,  999.0,  999.0,    0.3,  999.0,    0.3,    0.3,  999.0
2012/01/21 09:30,  999.0,  999.0,   -2.0,   -2.1,   -1.7,   -1.1,   -0.9,   -0.8,   -0.6,   -0.6,   -0.6,   -0.5,   -0.4,   -0.3,   -0.3,   -0.0,    0.0,    0.0,    0.0,   -0.0,    0.1,    0.1,    0.1,    0.1,    0.1,    0.1,  999.0,  999.0,  999.0,  999.0,    0.1,    0.2,    0.2,    0.1,    0.1,  999.0,  999.0,   -0.0,  999.0,  999.0,  999.0,  999.0,    0.2,  999.0,  999.0,  999.0,  999.0,  999.0,  999.0,  999.0,  999.0,  999.0,  999.0,  999.0,  999.0,  999.0,  999.0,  999.0,  999.0,  999.0,  999.0,  999.0,   -0.5,  999.0,  999.0,  999.0,  999.0,  999.0,  999.0,  999.0,  999.0,  999.0,  999.0,  999.0,  999.0,  999.0,  999.0,  999.0,  999.0,  999.0
2012/01/21 09:40,  999.0,  999.0,   -2.0,   -1.7,   -1.6,  999.0,  999.0,   -0.7,   -0.6,   -0.5,   -0.6,   -0.5,   -0.5,   -0.5,   -0.4,   -0.2,   -0.1,   -0.1,   -0.1,   -0.1,   -0.1,   -0.1,    0.0,    0.1,    0.1,    0.1,  999.0,  999.0,  999.0,  999.0,    0.3,    0.0,   -0.0,    0.1,    0.2,    0.1,    0.1,    0.3,   -0.0,  999.0,  999.0,  999.0,  999.0,  999.0,  999.0,  999.0,  999.0,  999.0,  999.0,  999.0,  999.0,  999.0,  999.0,  999.0,  999.0,  999.0,  999.0,  999.0,  999.0,  999.0,  999.0,  999.0,  999.0,  999.0,  999.0,  999.0,  999.0,  999.0,  999.0,  999.0,  999.0,  999.0,  999.0,  999.0,  999.0,  999.0,  999.0,  999.0,  999.0,  999.0
2012/01/21 09:50,  999.0,  999.0,   -1.3,   -1.0,   -0.8,   -1.1,   -0.7,   -0.2,   -0.1,   -0.2,   -0.1,   -0.0,   -0.0,   -0.1,   -0.3,   -0.2,   -0.1,   -0.0,   -0.1,   -0.1,    0.0,    0.0,    0.0,  999.0,   -0.2,   -0.0,   -0.1,   -0.1,  999.0,    0.0,   -0.1,   -0.0,    0.0,    0.0,    0.0,    0.0,   -0.0,   -0.1,  999.0,   -0.1,   -0.1,  999.0,  999.0,  999.0,  999.0,  999.0,  999.0,  999.0,  999.0,  999.0,  999.0,  999.0,  999.0,  999.0,  999.0,  999.0,  999.0,  999.0,  999.0,  999.0,  999.0,  999.0,  999.0,  999.0,  999.0,  999.0,  999.0,  999.0,  999.0,  999.0,  999.0,  999.0,  999.0,  999.0,  999.0,  999.0,  999.0,  999.0,  999.0,  999.0
2012/01/21 10:00,  999.0,   -0.1,  999.0,  999.0,  999.0,    0.0,   -0.1,    0.0,    0.1,    0.1,    0.1,    0.1,    0.0,    0.1,   -0.0,    0.1,    0.2,    0.1,    0.1,    0.2,  999.0,    0.0,    0.0,   -0.0,    0.0,    0.2,   -0.0,    0.0,  999.0,   -0.0,   -0.1,    0.2,    0.0,   -0.1,   -0.1,   -0.1,   -0.1,   -0.2,   -0.1,   -0.1,  999.0,  999.0,  999.0,  999.0,  999.0,  999.0,  999.0,  999.0,  999.0,  999.0,  999.0,  999.0,  999.0,  999.0,  999.0,  999.0,  999.0,  999.0,  999.0,  999.0,  999.0,  999.0,  999.0,  999.0,  999.0,  999.0,  999.0,   -0.6,  999.0,  999.0,  999.0,  999.0,  999.0,  999.0,  999.0,  999.0,  999.0,  999.0,  999.0,  999.0
2012/01/21 10:10,  999.0,  999.0,  999.0,   -0.1,  999.0,    0.1,    0.1,    0.2,    0.3,    0.1,    0.3,    0.2,    0.1,    0.3,    0.2,    0.3,    0.1,    0.1,    0.1,    0.1,  999.0,    0.0,    0.0,   -0.0,    0.0,   -0.0,    0.1,   -0.0,    0.1,    0.0,   -0.1,   -0.0,   -0.0,    0.0,    0.1,   -0.0,    0.0,    0.0,    0.0,  999.0,  999.0,  999.0,  999.0,  999.0,  999.0,  999.0,  999.0,  999.0,  999.0,  999.0,  999.0,  999.0,  999.0,  999.0,  999.0,  999.0,  999.0,  999.0,  999.0,  999.0,  999.0,  999.0,  999.0,  999.0,  999.0,  999.0,  999.0,  999.0,  999.0,  999.0,  999.0,  999.0,  999.0,  999.0,  999.0,  999.0,  999.0,  999.0,  999.0,  999.0
2012/01/21 10:20,  999.0,  999.0,  999.0,  999.0,    0.0,   -0.1,    0.0,    0.1,    0.1,    0.1,    0.0,    0.1,    0.1,    0.0,   -0.2,   -0.0,    0.0,    0.1,    0.1,    0.0,    0.0,    0.0,   -0.0,    0.0,    0.1,    0.0,  999.0,   -0.3,  999.0,  999.0,    0.0,  999.0,    0.1,    0.2,    0.1,    0.2,    0.2,    0.1,    0.1,    0.2,  999.0,  999.0,  999.0,  999.0,  999.0,  999.0,  999.0,  999.0,  999.0,  999.0,  999.0,  999.0,  999.0,  999.0,  999.0,  999.0,  999.0,  999.0,  999.0,  999.0,  999.0,  999.0,  999.0,   -0.5,   -0.5,   -0.4,   -0.6,   -0.7,   -0.7,   -0.6,   -0.6,  999.0,  999.0,  999.0,  999.0,  999.0,  999.0,  999.0,  999.0,  999.0
2012/01/21 10:30,  999.0,  999.0,  999.0,   -0.1,   -0.2,   -0.0,    0.0,    0.1,    0.1,   -0.6,   -0.2,   -0.2,   -0.1,   -0.0,    0.1,   -0.0,   -0.1,   -0.1,   -0.1,   -0.1,   -0.1,   -0.0,   -0.0,    0.0,  999.0,   -0.1,  999.0,   -0.1,  999.0,  999.0,   -0.0,  999.0,  999.0,  999.0,    0.1,    0.1,    0.1,    0.1,    0.1,    0.2,    0.0,  999.0,  999.0,    0.0,  999.0,  999.0,  999.0,  999.0,  999.0,  999.0,  999.0,  999.0,  999.0,  999.0,  999.0,  999.0,  999.0,  999.0,  999.0,  999.0,  999.0,  999.0,  999.0,  999.0,  999.0,  999.0,  999.0,   -0.6,   -0.5,   -0.5,  999.0,  999.0,  999.0,  999.0,  999.0,  999.0,  999.0,  999.0,  999.0,  999.0
2012/01/21 10:40,  999.0,  999.0,  999.0,  999.0,   -0.1,   -0.0,    0.0,    0.1,    0.1,   -0.2,   -0.0,   -0.1,   -0.0,    0.0,    0.1,    0.0,    0.0,    0.0,   -0.0,   -0.1,   -0.0,   -0.1,   -0.1,   -0.0,   -0.1,   -0.2,  999.0,  999.0,   -0.1,  999.0,    0.2,  999.0,  999.0,  999.0,    0.1,    0.1,    0.0,  999.0,  999.0,  999.0,  999.0,  999.0,  999.0,   -0.0,    0.0,  999.0,  999.0,  999.0,  999.0,  999.0,  999.0,  999.0,  999.0,  999.0,  999.0,  999.0,  999.0,  999.0,  999.0,  999.0,  999.0,  999.0,  999.0,  999.0,  999.0,  999.0,  999.0,  999.0,   -0.3,   -0.3,  999.0,  999.0,  999.0,  999.0,  999.0,  999.0,  999.0,  999.0,  999.0,  999.0
2012/01/21 10:50,  999.0,  999.0,  999.0,   -0.5,   -0.3,   -0.1,    0.0,    0.1,    0.2,    0.1,    0.2,    0.2,    0.2,    0.0,    0.1,    0.1,  999.0,    0.2,    0.0,    0.0,   -0.0,   -0.1,   -0.2,   -0.4,   -0.5,   -0.3,   -0.3,  999.0,  999.0,   -0.1,   -0.4,   -0.4,   -0.1,   -0.2,   -0.3,   -0.3,   -0.1,   -0.2,    0.1,  999.0,  999.0,  999.0,  999.0,    0.2,   -0.1,  999.0,  999.0,  999.0,  999.0,  999.0,  999.0,  999.0,  999.0,  999.0,  999.0,  999.0,  999.0,  999.0,  999.0,  999.0,  999.0,  999.0,  999.0,  999.0,  999.0,  999.0,  999.0,   -0.1,  999.0,  999.0,    0.1,  999.0,    0.1,  999.0,  999.0,  999.0,  999.0,  999.0,  999.0,  999.0
2012/01/21 11:00,   -0.1,  999.0,  999.0,   -0.5,   -0.3,   -0.2,   -0.0,    0.1,    0.1,    0.1,    0.1,   -0.0,    0.1,   -0.0,   -0.0,    0.1,    0.0,    0.0,    0.0,    0.0,   -0.3,   -0.3,   -0.6,   -0.7,   -0.6,   -0.7,   -0.7,   -0.6,   -0.6,   -0.5,   -0.4,   -0.4,   -0.3,   -0.2,   -0.4,   -0.4,   -0.2,  999.0,    0.1,  999.0,  999.0,  999.0,    0.1,   -0.0,    0.2,  999.0,  999.0,  999.0,  999.0,  999.0,  999.0,  999.0,  999.0,  999.0,  999.0,  999.0,  999.0,  999.0,  999.0,  999.0,  999.0,  999.0,  999.0,  999.0,  999.0,  999.0,  999.0,  999.0,  999.0,  999.0,    0.3,  999.0,  999.0,  999.0,  999.0,  999.0,  999.0,  999.0,  999.0,  999.0
2012/01/21 11:10,  999.0,  999.0,  999.0,   -0.3,   -0.1,   -0.1,    0.1,    0.0,    0.1,   -0.2,   -0.2,   -0.0,    0.0,   -0.1,   -0.0,   -0.1,    0.0,  999.0,   -0.0,   -0.2,   -0.6,   -0.5,   -0.7,   -0.8,   -0.8,   -0.8,   -0.8,   -0.8,   -0.7,   -0.7,   -0.6,   -0.6,   -0.6,   -0.5,   -0.5,   -0.5,   -0.5,   -0.4,   -0.5,   -0.4,   -0.2,   -0.1,    0.0,    0.0,   -0.0,   -0.1,  999.0,  999.0,  999.0,  999.0,  999.0,  999.0,  999.0,  999.0,  999.0,  999.0,  999.0,  999.0,  999.0,  999.0,  999.0,  999.0,  999.0,  999.0,  999.0,  999.0,  999.0,   -0.7,  999.0,  999.0,  999.0,  999.0,  999.0,  999.0,  999.0,  999.0,  999.0,  999.0,  999.0,  999.0
2012/01/21 11:20,  999.0,  999.0,   -0.1,   -0.1,   -0.1,   -0.0,    0.1,    0.1,    0.1,   -0.2,   -0.1,   -0.1,   -0.1,   -0.1,    0.0,    0.1,  999.0,   -0.5,   -0.5,   -0.4,  999.0,  999.0,  999.0,   -1.1,   -0.9,   -0.8,   -0.8,   -0.8,   -0.7,   -0.6,   -0.6,   -0.6,   -0.5,   -0.5,   -0.6,   -0.5,   -0.5,   -0.5,   -0.4,   -0.4,  999.0,   -0.0,    0.1,    0.0,    0.0,    0.0,  999.0,  999.0,  999.0,  999.0,  999.0,  999.0,  999.0,  999.0,  999.0,  999.0,  999.0,  999.0,  999.0,  999.0,  999.0,  999.0,  999.0,  999.0,  999.0,  999.0,   -0.4,  999.0,  999.0,  999.0,  999.0,  999.0,  999.0,  999.0,  999.0,  999.0,  999.0,  999.0,  999.0,  999.0
2012/01/21 11:30,  999.0,  999.0,   -0.0,   -0.2,   -0.1,   -0.2,   -0.5,   -0.4,   -0.1,   -0.3,   -0.3,   -0.3,   -0.3,   -0.2,   -0.2,   -0.5,   -0.7,   -0.6,   -0.4,   -0.4,   -0.5,   -0.7,   -0.8,   -0.8,   -0.8,   -0.7,   -0.7,   -0.7,   -0.7,   -0.6,   -0.5,   -0.6,   -0.4,   -0.5,   -0.4,   -0.4,   -0.3,   -0.4,   -0.4,   -0.3,  999.0,   -0.0,   -0.0,   -0.1,   -0.1,  999.0,  999.0,  999.0,  999.0,  999.0,  999.0,  999.0,  999.0,  999.0,  999.0,  999.0,  999.0,  999.0,  999.0,  999.0,  999.0,  999.0,  999.0,  999.0,  999.0,  999.0,  999.0,  999.0,  999.0,  999.0,  999.0,  999.0,  999.0,  999.0,  999.0,  999.0,   -0.5,  999.0,   -0.5,   -0.5
2012/01/21 11:40,  999.0,  999.0,  999.0,   -0.1,   -0.1,  999.0,   -1.5,   -1.1,   -1.0,   -0.9,   -0.9,   -1.0,   -0.9,   -0.7,   -0.3,   -0.4,   -0.5,   -0.5,   -0.2,   -0.5,   -0.7,   -0.7,   -0.8,   -0.8,   -0.8,   -0.7,   -0.8,   -0.7,   -0.7,   -0.5,   -0.4,   -0.5,   -0.6,   -0.6,   -0.5,   -0.4,   -0.5,   -0.4,   -0.3,   -0.4,   -0.4,   -0.1,    0.0,  999.0,    0.1,  999.0,  999.0,  999.0,  999.0,  999.0,  999.0,  999.0,  999.0,  999.0,  999.0,  999.0,  999.0,  999.0,  999.0,  999.0,  999.0,  999.0,  999.0,  999.0,  999.0,  999.0,  999.0,  999.0,  999.0,  999.0,  999.0,  999.0,  999.0,  999.0,  999.0,  999.0,  999.0,  999.0,  999.0,  999.0
2012/01/21 11:50,  999.0,  999.0,  999.0,   -0.2,  999.0,  999.0,  999.0,   -1.1,   -0.9,   -0.9,   -0.9,   -0.8,   -0.7,   -0.6,   -0.4,   -0.4,   -0.6,   -0.6,   -0.6,   -0.6,   -0.7,   -0.7,   -0.8,   -0.9,   -1.0,   -1.0,   -0.9,   -0.8,   -0.7,   -0.6,   -0.7,   -0.7,   -0.6,   -0.6,   -0.6,   -0.6,   -0.5,   -0.5,   -0.3,   -0.3,   -0.2,   -0.1,    0.0,   -0.2,   -0.1,  999.0,  999.0,  999.0,  999.0,  999.0,  999.0,  999.0,  999.0,  999.0,  999.0,  999.0,  999.0,  999.0,  999.0,  999.0,  999.0,  999.0,  999.0,  999.0,  999.0,  999.0,  999.0,  999.0,  999.0,  999.0,  999.0,  999.0,  999.0,  999.0,  999.0,  999.0,  999.0,  999.0,  999.0,  999.0
2012/01/21 12:00,  999.0,  999.0,  999.0,   -1.3,  999.0,  999.0,  999.0,   -1.2,   -1.0,   -1.0,   -1.1,   -1.1,   -1.1,   -1.0,   -0.9,   -0.8,   -0.8,   -0.8,   -0.8,   -0.6,   -0.4,   -0.7,   -0.7,   -0.7,   -0.8,   -0.6,   -0.3,   -0.5,   -0.3,   -0.2,   -0.2,    0.0,   -0.3,  999.0,  999.0,  999.0,   -0.5,   -0.5,   -0.5,   -0.5,   -0.4,   -0.0,    0.1,   -0.1,    0.1,    0.2,  999.0,  999.0,  999.0,  999.0,  999.0,  999.0,  999.0,  999.0,  999.0,  999.0,  999.0,  999.0,  999.0,  999.0,  999.0,  999.0,   -0.4,  999.0,  999.0,  999.0,  999.0,  999.0,  999.0,  999.0,  999.0,  999.0,  999.0,  999.0,  999.0,  999.0,  999.0,  999.0,  999.0,  999.0
2012/01/21 12:10,  999.0,  999.0,   -2.4,   -2.5,   -2.5,   -2.4,  999.0,   -1.1,   -1.0,   -1.1,   -1.1,   -1.1,   -1.1,   -1.0,   -0.9,   -0.9,   -0.8,   -0.8,   -0.5,   -0.2,   -0.0,    0.0,   -0.1,    0.3,  999.0,   -0.1,   -0.1,    0.0,   -0.0,   -0.0,   -0.2,  999.0,  999.0,   -0.1,  999.0,  999.0,  999.0,  999.0,  999.0,  999.0,  999.0,  999.0,   -0.1,    0.1,    0.1,    0.2,  999.0,  999.0,  999.0,  999.0,  999.0,  999.0,  999.0,  999.0,  999.0,  999.0,  999.0,  999.0,  999.0,  999.0,  999.0,  999.0,  999.0,  999.0,  999.0,  999.0,  999.0,  999.0,  999.0,  999.0,  999.0,  999.0,  999.0,  999.0,  999.0,  999.0,  999.0,    0.9,  999.0,  999.0
2012/01/21 12:20,  999.0,  999.0,  999.0,   -2.4,   -2.4,   -2.6,   -1.5,   -0.9,   -0.9,   -0.9,   -0.8,   -0.9,   -0.8,   -0.6,   -0.6,   -0.5,   -0.5,   -0.4,   -0.4,    0.1,    0.2,    0.1,   -0.1,   -0.3,   -0.4,   -0.3,   -0.2,  999.0,  999.0,   -0.0,   -0.2,   -0.1,  999.0,  999.0,  999.0,  999.0,  999.0,  999.0,  999.0,  999.0,  999.0,  999.0,  999.0,   -0.0,    0.0,   -0.0,  999.0,  999.0,  999.0,  999.0,  999.0,  999.0,  999.0,  999.0,  999.0,  999.0,  999.0,  999.0,  999.0,  999.0,  999.0,  999.0,  999.0,  999.0,  999.0,  999.0,  999.0,  999.0,  999.0,  999.0,  999.0,  999.0,  999.0,  999.0,  999.0,  999.0,  999.0,  999.0,  999.0,  999.0
2012/01/21 12:30,  999.0,  999.0,   -1.6,   -1.8,   -1.7,   -1.6,   -1.4,   -0.8,   -0.6,   -0.6,   -0.6,   -0.6,   -0.6,   -0.4,   -0.4,   -0.5,   -0.5,   -0.3,   -0.1,   -0.2,  999.0,   -0.2,   -0.7,   -0.7,   -0.7,   -0.6,   -0.6,   -0.6,   -0.5,   -0.1,    0.0,   -0.0,   -0.0,  999.0,  999.0,  999.0,  999.0,  999.0,  999.0,  999.0,  999.0,  999.0,  999.0,   -0.0,   -0.2,    0.1,    0.1,  999.0,  999.0,  999.0,  999.0,  999.0,  999.0,  999.0,  999.0,  999.0,  999.0,  999.0,  999.0,  999.0,  999.0,  999.0,  999.0,  999.0,  999.0,  999.0,  999.0,  999.0,  999.0,  999.0,  999.0,  999.0,  999.0,  999.0,  999.0,  999.0,  999.0,  999.0,  999.0,  999.0
2012/01/21 12:40,  999.0,  999.0,  999.0,   -0.9,   -0.9,   -0.9,   -0.9,   -0.6,   -0.5,   -0.5,   -0.3,   -0.7,   -0.6,   -0.2,   -0.7,   -0.6,   -0.4,   -0.4,   -0.3,   -0.0,   -0.3,   -0.5,   -0.6,   -0.5,   -0.3,   -0.6,   -0.6,   -0.6,   -0.1,  999.0,    0.1,    0.3,    0.1,  999.0,  999.0,  999.0,  999.0,  999.0,  999.0,   -0.3,  999.0,  999.0,  999.0,  999.0,   -0.1,    0.2,  999.0,  999.0,  999.0,  999.0,  999.0,  999.0,  999.0,  999.0,  999.0,  999.0,  999.0,  999.0,  999.0,  999.0,  999.0,  999.0,  999.0,  999.0,  999.0,  999.0,  999.0,  999.0,  999.0,  999.0,  999.0,  999.0,  999.0,  999.0,  999.0,  999.0,  999.0,  999.0,  999.0,  999.0
2012/01/21 12:50,  999.0,  999.0,  999.0,   -0.8,   -0.9,   -0.9,   -0.7,   -0.4,   -0.5,   -0.4,   -0.3,   -0.7,   -0.8,   -0.7,   -1.1,   -1.0,   -1.0,   -0.9,   -0.7,   -0.3,   -0.6,   -0.5,   -0.7,   -0.6,   -0.8,   -0.7,   -0.7,   -0.5,   -0.2,   -0.1,   -0.0,   -0.3,   -0.4,   -0.7,   -0.8,   -0.8,   -0.8,   -0.8,   -0.6,   -0.6,   -0.4,   -0.3,  999.0,  999.0,  999.0,   -0.2,   -0.1,  999.0,  999.0,  999.0,  999.0,  999.0,  999.0,  999.0,  999.0,  999.0,  999.0,  999.0,  999.0,  999.0,  999.0,  999.0,  999.0,  999.0,  999.0,  999.0,  999.0,  999.0,  999.0,  999.0,  999.0,  999.0,  999.0,  999.0,  999.0,  999.0,  999.0,  999.0,  999.0,  999.0
2012/01/21 13:00,  999.0,  999.0,  999.0,   -1.2,   -1.1,   -1.0,   -0.9,   -0.2,   -0.5,   -0.6,   -0.7,   -0.8,   -0.8,   -0.6,   -0.8,   -0.8,   -0.7,   -0.6,   -0.2,   -0.5,   -0.6,   -0.8,   -0.7,   -1.3,   -1.3,   -1.2,   -1.1,   -1.0,   -0.8,   -0.8,   -0.8,   -0.7,   -0.8,   -0.6,   -0.8,   -0.8,   -0.9,  999.0,   -0.6,  999.0,   -0.6,  999.0,  999.0,  999.0,   -0.2,   -0.3,  999.0,  999.0,  999.0,  999.0,  999.0,  999.0,  999.0,  999.0,  999.0,  999.0,  999.0,  999.0,  999.0,  999.0,  999.0,  999.0,  999.0,  999.0,  999.0,  999.0,  999.0,  999.0,  999.0,  999.0,  999.0,  999.0,  999.0,  999.0,  999.0,  999.0,  999.0,  999.0,  999.0,  999.0
2012/01/21 13:10,  999.0,   -1.1,   -1.3,   -1.2,   -1.2,   -1.2,   -1.1,   -1.0,   -0.9,   -1.1,   -1.2,   -1.1,   -1.2,   -1.2,   -1.2,   -1.2,   -1.2,   -1.2,   -1.2,   -1.1,   -1.1,   -1.1,   -1.0,   -0.8,   -0.9,   -1.0,   -1.0,   -0.8,   -0.3,   -0.3,  999.0,  999.0,   -0.3,   -0.4,   -0.3,   -0.1,  999.0,  999.0,  999.0,  999.0,  999.0,  999.0,  999.0,  999.0,  999.0,   -0.2,  999.0,  999.0,  999.0,  999.0,  999.0,  999.0,  999.0,  999.0,  999.0,  999.0,  999.0,  999.0,  999.0,  999.0,  999.0,  999.0,  999.0,  999.0,  999.0,  999.0,  999.0,  999.0,  999.0,  999.0,  999.0,  999.0,  999.0,  999.0,  999.0,  999.0,  999.0,  999.0,  999.0,  999.0
2012/01/21 13:20,  999.0,  999.0,  999.0,   -1.6,   -1.5,   -1.5,   -1.9,   -1.4,   -1.1,   -1.1,   -1.1,   -1.1,   -1.1,   -1.1,   -1.1,   -1.1,   -1.0,   -1.0,   -1.0,   -1.1,   -1.1,   -1.0,   -0.9,   -1.0,   -1.0,   -0.8,   -0.8,   -0.6,   -0.6,   -0.5,   -0.4,   -0.4,   -0.4,   -0.2,   -0.3,   -0.1,  999.0,  999.0,  999.0,  999.0,  999.0,  999.0,  999.0,  999.0,  999.0,  999.0,  999.0,  999.0,  999.0,  999.0,  999.0,  999.0,  999.0,  999.0,  999.0,  999.0,  999.0,  999.0,  999.0,  999.0,  999.0,  999.0,  999.0,  999.0,  999.0,  999.0,  999.0,  999.0,  999.0,  999.0,  999.0,  999.0,  999.0,  999.0,  999.0,  999.0,  999.0,  999.0,  999.0,  999.0
2012/01/21 13:30,  999.0,  999.0,   -1.7,   -1.6,   -1.4,   -1.3,   -1.1,   -1.0,   -0.6,   -0.7,   -0.8,   -0.9,   -0.8,   -1.0,   -1.0,   -1.0,   -1.0,   -1.0,   -1.0,   -1.0,   -1.1,   -1.1,   -1.1,   -1.2,   -1.3,   -1.3,   -1.3,   -1.3,   -1.2,   -1.0,   -0.9,   -0.8,   -0.7,   -0.6,   -0.6,   -0.5,  999.0,  999.0,  999.0,  999.0,  999.0,  999.0,  999.0,  999.0,  999.0,  999.0,  999.0,  999.0,  999.0,  999.0,  999.0,  999.0,  999.0,  999.0,  999.0,  999.0,  999.0,  999.0,  999.0,  999.0,  999.0,  999.0,  999.0,  999.0,  999.0,  999.0,  999.0,  999.0,  999.0,  999.0,  999.0,  999.0,  999.0,  999.0,  999.0,  999.0,  999.0,  999.0,  999.0,  999.0
2012/01/21 13:40,  999.0,  999.0,  999.0,   -0.9,   -0.8,   -0.2,   -0.0,   -0.6,   -0.2,   -0.8,   -0.9,   -1.0,   -1.0,   -1.0,   -0.9,   -0.9,   -0.8,   -0.8,   -0.8,   -0.8,   -0.7,   -0.7,   -0.8,   -0.8,   -0.8,   -0.8,   -0.8,   -0.9,   -0.8,   -0.8,   -0.6,   -0.6,   -0.7,   -0.5,   -1.1,   -1.4,   -1.4,   -1.3,   -1.1,   -1.1,   -1.0,   -1.1,   -1.1,   -1.2,   -1.1,   -1.0,   -1.0,   -0.9,   -1.0,   -1.0,   -0.8,   -0.9,   -0.8,  999.0,  999.0,  999.0,   -0.7,   -0.6,   -0.5,   -0.5,   -0.6,   -0.3,   -0.4,  999.0,  999.0,  999.0,  999.0,  999.0,  999.0,  999.0,  999.0,  999.0,  999.0,  999.0,  999.0,  999.0,  999.0,  999.0,  999.0,  999.0
2012/01/21 13:50,  999.0,  999.0,  999.0,   -4.1,   -3.2,   -2.4,   -1.6,   -1.2,   -1.1,   -1.1,   -1.1,   -1.1,   -1.1,   -1.1,   -1.1,   -1.2,   -1.1,   -1.0,   -1.0,   -1.1,   -0.8,   -1.0,   -1.4,   -1.4,   -1.4,   -1.3,   -1.2,   -1.2,   -1.0,   -1.0,   -0.9,   -1.0,   -0.9,   -0.9,   -0.6,   -0.6,   -0.6,   -0.9,   -0.9,   -0.9,   -0.8,   -0.9,   -0.7,   -0.9,   -1.0,   -0.9,  999.0,  999.0,  999.0,  999.0,   -0.9,  999.0,   -0.8,   -0.9,   -0.9,   -0.8,   -0.9,   -0.9,   -0.8,   -0.7,   -0.9,   -0.5,  999.0,  999.0,  999.0,  999.0,  999.0,  999.0,  999.0,  999.0,  999.0,  999.0,  999.0,  999.0,  999.0,  999.0,  999.0,  999.0,  999.0,  999.0
2012/01/21 14:00,   -4.1,   -4.1,   -3.9,   -4.0,   -3.6,   -2.5,  999.0,   -1.3,   -1.2,   -1.4,   -1.4,   -1.4,   -1.4,   -1.4,   -1.4,   -1.3,   -1.3,   -1.2,   -1.2,   -1.1,   -1.0,   -1.0,   -1.0,   -1.1,   -1.0,   -1.0,   -1.0,   -1.0,   -1.0,   -0.9,   -0.8,   -0.9,   -0.9,   -0.9,   -1.0,   -1.0,   -1.0,   -0.9,   -0.9,   -0.9,   -0.9,   -0.9,   -0.8,   -0.8,   -0.9,   -0.8,   -0.6,   -0.4,   -0.5,   -0.5,   -0.6,   -0.7,   -0.9,   -0.8,   -0.8,   -0.6,   -0.6,   -0.5,   -0.7,   -0.4,   -0.2,   -0.4,   -0.5,  999.0,  999.0,  999.0,  999.0,  999.0,  999.0,  999.0,  999.0,  999.0,  999.0,  999.0,  999.0,  999.0,  999.0,  999.0,  999.0,  999.0
2012/01/21 14:10,  999.0,   -4.7,   -4.8,   -4.3,   -3.2,   -2.4,   -1.9,   -1.6,   -1.5,   -1.5,   -1.5,   -1.4,   -1.4,   -1.4,   -1.3,   -1.3,   -1.4,   -1.4,   -1.4,   -1.4,   -1.3,   -1.3,   -1.2,   -1.2,   -1.1,   -1.1,   -1.0,   -0.9,   -0.8,   -0.8,   -0.8,   -0.7,   -0.7,   -0.7,   -0.7,   -0.7,   -0.7,   -0.7,   -0.7,   -0.8,   -0.8,   -0.7,   -0.7,   -0.6,   -0.6,   -0.5,   -0.5,   -0.4,   -0.5,   -0.6,   -0.6,   -0.5,   -0.6,   -0.6,   -0.6,   -0.6,   -0.6,   -0.5,   -0.8,   -0.5,  999.0,  999.0,  999.0,  999.0,  999.0,  999.0,  999.0,  999.0,  999.0,  999.0,  999.0,  999.0,  999.0,  999.0,  999.0,  999.0,  999.0,  999.0,  999.0,  999.0
2012/01/21 14:20,   -4.1,   -4.3,   -4.0,   -4.1,   -3.2,   -2.4,   -1.9,   -1.6,   -1.6,   -1.5,   -1.6,   -1.9,   -1.7,   -1.5,   -1.4,   -1.4,   -1.4,   -1.3,   -1.2,   -1.1,   -1.1,   -1.1,   -1.0,   -1.0,   -0.9,   -1.0,   -1.0,   -0.9,   -0.9,   -0.8,   -0.8,   -0.8,   -0.7,   -0.7,   -0.7,   -0.7,   -0.7,   -0.8,   -0.8,   -0.8,   -0.8,   -0.7,   -0.7,   -0.7,   -0.7,   -0.7,   -0.6,   -0.5,   -0.4,   -0.5,   -0.5,   -0.4,   -0.5,   -0.4,   -0.5,   -0.5,   -0.4,   -0.5,   -0.6,   -0.5,   -0.5,   -0.5,   -0.6,   -0.6,   -0.5,   -0.6,   -0.7,   -0.6,  999.0,  999.0,  999.0,  999.0,  999.0,  999.0,  999.0,  999.0,  999.0,  999.0,  999.0,  999.0
2012/01/21 14:30,   -4.4,   -4.5,   -4.4,   -4.1,   -2.9,   -2.1,   -1.7,   -1.4,   -1.3,   -1.3,   -1.3,   -1.3,   -1.4,   -1.3,   -1.3,   -1.2,   -1.2,   -1.2,   -1.2,   -1.2,   -1.1,   -1.0,   -1.0,   -1.0,   -1.1,   -1.1,   -1.1,   -1.1,   -1.0,   -1.0,   -0.9,   -0.9,   -0.8,   -0.8,   -0.8,   -0.8,   -0.9,   -0.9,   -0.9,   -0.9,   -0.8,   -0.9,   -0.9,   -0.9,   -0.9,   -0.8,   -0.8,   -0.8,   -0.8,   -0.8,   -0.8,   -0.8,   -0.8,   -0.7,   -0.7,   -0.6,   -0.5,   -0.5,   -0.4,   -0.4,   -0.5,   -0.5,   -0.4,   -0.5,   -0.4,   -0.5,   -0.5,   -0.6,   -0.6,   -0.7,   -0.4,  999.0,  999.0,  999.0,  999.0,  999.0,  999.0,  999.0,  999.0,  999.0
2012/01/21 14:40,   -4.4,  999.0,   -4.4,   -3.4,   -2.3,   -1.9,   -1.8,   -1.7,   -1.6,   -1.5,   -1.4,   -1.4,   -1.3,   -1.3,   -1.2,   -1.2,   -1.2,   -1.1,   -1.2,   -1.1,   -1.2,   -1.1,   -1.1,   -1.1,   -1.1,   -1.1,   -1.1,   -1.1,   -1.1,   -1.1,   -1.0,   -1.0,   -1.0,   -0.9,   -0.9,   -0.9,   -0.9,   -0.9,   -0.9,   -0.9,   -0.9,   -0.9,   -0.9,   -0.8,   -0.8,   -0.9,   -0.9,   -0.9,   -0.8,   -0.9,   -0.8,   -0.7,   -0.7,   -0.6,   -0.6,   -0.6,   -0.6,   -0.6,   -0.6,   -0.6,   -0.6,   -0.6,   -0.5,   -0.5,   -0.5,   -0.5,   -0.4,   -0.5,   -0.3,   -0.2,   -0.3,    0.0,  999.0,  999.0,  999.0,  999.0,  999.0,  999.0,  999.0,  999.0
2012/01/21 14:50,  999.0,  999.0,   -4.4,  999.0,  999.0,   -1.9,   -1.7,   -1.6,   -1.5,   -1.5,   -1.4,   -1.3,   -1.3,   -1.3,   -1.2,   -1.2,   -1.2,   -1.2,   -1.1,   -1.1,   -1.1,   -1.1,   -1.1,   -1.0,   -1.1,   -1.1,   -1.1,   -1.1,   -1.0,   -1.0,   -1.0,   -1.0,   -1.0,   -1.0,   -0.9,   -0.9,   -1.0,   -1.0,   -1.0,   -0.9,   -0.9,   -0.9,   -0.8,   -0.8,   -0.8,   -0.7,   -0.7,   -0.6,   -0.6,   -0.6,   -0.6,   -0.6,   -0.5,   -0.5,   -0.5,   -0.4,   -0.4,   -0.4,   -0.3,   -0.3,  999.0,   -0.4,   -0.3,   -0.4,  999.0,  999.0,  999.0,  999.0,  999.0,  999.0,  999.0,  999.0,  999.0,  999.0,  999.0,  999.0,  999.0,  999.0,  999.0,  999.0
2012/01/21 15:00,  999.0,  999.0,  999.0,  999.0,  999.0,  999.0,   -1.6,   -1.6,   -1.5,   -1.5,   -1.3,   -1.3,   -1.2,   -1.1,   -1.1,   -1.1,   -1.1,   -1.1,   -1.1,   -1.1,   -1.0,   -1.0,   -1.1,   -1.0,   -1.1,   -1.0,   -1.0,   -1.0,   -1.0,   -0.9,   -0.9,   -0.9,   -0.8,   -0.8,   -0.8,   -0.8,   -0.8,   -0.8,   -0.9,   -0.8,   -0.8,   -0.8,   -0.9,   -0.8,   -0.8,   -0.8,   -0.7,   -0.7,   -0.7,   -0.6,   -0.7,   -0.6,   -0.6,   -0.6,   -0.5,   -0.6,   -0.5,   -0.5,   -0.5,   -0.4,   -0.3,   -0.2,  999.0,  999.0,  999.0,  999.0,  999.0,  999.0,  999.0,  999.0,  999.0,  999.0,  999.0,  999.0,  999.0,  999.0,  999.0,  999.0,  999.0,  999.0
2012/01/21 15:10,  999.0,  999.0,  999.0,  999.0,   -1.8,   -1.6,   -1.6,   -1.5,   -1.4,   -1.4,   -1.3,   -1.3,   -1.3,   -1.3,   -1.2,   -1.1,   -1.0,   -1.0,   -1.0,   -1.1,   -1.1,   -1.1,   -1.0,   -1.0,   -0.9,   -0.9,   -0.9,   -1.0,   -1.0,   -0.9,   -0.9,   -0.9,   -0.9,   -0.8,   -0.8,   -0.8,   -0.9,   -0.9,   -0.9,   -0.8,   -0.7,   -0.7,   -0.7,   -0.7,   -0.6,   -0.7,   -0.7,   -0.7,   -0.6,   -0.6,   -0.5,   -0.5,   -0.5,   -0.4,   -0.4,   -0.4,   -0.4,   -0.4,   -0.4,   -0.4,   -0.4,  999.0,   -0.1,  999.0,  999.0,  999.0,  999.0,  999.0,  999.0,  999.0,  999.0,  999.0,  999.0,  999.0,  999.0,  999.0,  999.0,  999.0,  999.0,  999.0
2012/01/21 15:20,  999.0,  999.0,  999.0,  999.0,   -1.7,   -1.6,   -1.5,   -1.4,   -1.4,   -1.3,   -1.2,   -1.2,   -1.2,   -1.1,   -1.1,   -1.1,   -1.1,   -1.1,   -1.1,   -1.1,   -1.0,   -1.0,   -1.0,   -1.1,   -1.1,   -1.0,   -1.0,   -1.1,   -1.0,   -1.0,   -1.0,   -1.0,   -0.9,   -1.0,   -1.0,   -0.9,   -0.9,   -1.0,   -1.0,   -1.1,   -1.0,   -0.9,   -0.8,   -0.7,   -0.7,   -0.5,   -0.5,   -0.6,   -0.6,   -0.7,   -0.6,   -0.6,   -0.6,   -0.5,   -0.6,   -0.6,   -0.5,   -0.6,   -0.6,   -0.4,   -0.5,   -0.4,   -0.5,   -0.4,   -0.4,   -0.3,   -0.4,  999.0,   -0.4,  999.0,  999.0,  999.0,  999.0,  999.0,  999.0,  999.0,  999.0,  999.0,  999.0,  999.0
2012/01/21 15:30,  999.0,  999.0,  999.0,   -1.9,   -1.6,   -1.6,   -1.5,   -1.5,   -1.4,   -1.3,   -1.3,   -1.3,   -1.3,   -1.2,   -1.2,   -1.2,   -1.1,   -1.1,   -1.0,   -1.0,   -1.0,   -1.0,   -1.0,   -1.1,   -1.1,   -1.1,   -1.1,   -1.1,   -1.2,   -1.1,   -1.1,   -1.1,   -1.0,   -1.0,   -1.0,   -1.0,   -1.0,   -1.0,   -1.0,   -0.9,   -1.0,   -0.9,   -0.9,   -0.9,   -0.8,   -0.9,   -0.8,   -0.8,   -0.8,   -0.8,   -0.7,   -0.7,   -0.7,   -0.6,   -0.6,   -0.6,   -0.5,   -0.5,   -0.5,   -0.5,   -0.5,   -0.4,   -0.4,   -0.3,   -0.3,   -0.3,   -0.3,   -0.2,   -0.3,   -0.2,   -0.2,  999.0,  999.0,  999.0,   -0.2,  999.0,  999.0,  999.0,  999.0,  999.0
2012/01/21 15:40,  999.0,   -2.9,   -1.9,   -1.7,   -1.6,   -1.5,   -1.4,   -1.3,   -1.3,   -1.2,   -1.2,   -1.3,   -1.3,   -1.2,   -1.2,   -1.2,   -1.1,   -1.2,   -1.2,   -1.1,   -1.2,   -1.2,   -1.2,   -1.2,   -1.2,   -1.2,   -1.2,   -1.2,   -1.1,   -1.2,   -1.1,   -1.1,   -1.0,   -1.0,   -1.0,   -1.0,   -1.0,   -1.0,   -1.0,   -1.1,   -1.0,   -1.0,   -1.0,   -1.0,   -1.0,   -1.0,   -1.0,   -1.0,   -0.9,   -0.9,   -0.9,   -0.8,   -0.8,   -0.7,   -0.7,   -0.6,   -0.7,   -0.6,   -0.6,   -0.6,   -0.6,   -0.5,   -0.5,   -0.6,   -0.6,   -0.5,   -0.5,   -0.5,   -0.6,   -0.4,  999.0,  999.0,  999.0,  999.0,  999.0,  999.0,  999.0,  999.0,  999.0,  999.0
2012/01/21 15:50,  999.0,   -3.0,   -1.5,   -1.6,   -1.7,   -1.6,   -1.5,   -1.4,   -1.4,   -1.3,   -1.3,   -1.3,   -1.2,   -1.2,   -1.1,   -1.1,   -1.1,   -1.0,   -1.1,   -1.1,   -1.1,   -1.1,   -1.1,   -1.1,   -1.1,   -1.1,   -1.1,   -1.1,   -1.1,   -1.1,   -1.1,   -1.0,   -1.0,   -1.0,   -1.0,   -0.9,   -1.0,   -1.0,   -1.1,   -1.2,   -1.3,   -1.2,   -1.3,   -1.4,   -1.3,   -1.1,   -0.9,   -0.9,   -0.8,   -0.7,   -0.7,   -0.8,   -0.7,   -0.7,   -0.7,   -0.7,   -0.6,   -0.6,   -0.7,   -0.7,   -0.6,   -0.7,   -0.7,   -0.7,   -0.6,   -0.7,   -0.6,   -0.5,   -0.7,   -0.6,   -0.6,   -0.7,  999.0,  999.0,  999.0,  999.0,  999.0,  999.0,  999.0,  999.0
2012/01/21 16:00,  999.0,   -2.4,   -1.5,   -1.6,   -1.7,   -1.7,   -1.6,   -1.5,   -1.4,   -1.3,   -1.3,   -1.3,   -1.3,   -1.3,   -1.2,   -1.3,   -1.2,   -1.2,   -1.2,   -1.1,   -1.1,   -1.1,   -1.1,   -1.1,   -1.1,   -1.1,   -1.1,   -1.0,   -1.0,   -1.0,   -1.0,   -1.0,   -0.9,   -0.9,   -0.9,   -0.9,   -0.9,   -1.0,   -0.9,   -1.0,   -1.0,   -1.0,   -0.9,   -1.0,   -0.9,   -0.8,   -0.8,   -0.8,   -0.8,   -0.7,   -0.8,   -0.7,   -0.7,   -0.7,   -0.6,   -0.5,   -0.5,   -0.5,   -0.6,   -0.6,   -0.5,   -0.6,   -0.5,   -0.6,   -0.3,   -0.4,   -0.3,  999.0,  999.0,  999.0,  999.0,   -0.2,  999.0,  999.0,  999.0,  999.0,  999.0,  999.0,  999.0,  999.0
2012/01/21 16:10,  999.0,   -2.4,   -1.6,   -1.7,   -1.7,   -1.7,   -1.6,   -1.5,   -1.4,   -1.4,   -1.3,   -1.3,   -1.3,   -1.2,   -1.2,   -1.1,   -1.1,   -1.1,   -1.1,   -1.1,   -1.1,   -1.1,   -1.0,   -1.0,   -1.0,   -1.0,   -1.0,   -1.0,   -1.0,   -1.0,   -1.0,   -0.9,   -0.9,   -0.9,   -0.9,   -1.0,   -1.0,   -1.0,   -1.0,   -0.9,   -1.0,   -1.0,   -1.0,   -1.0,   -0.9,   -0.9,   -0.8,   -0.8,   -0.8,   -0.8,   -0.8,   -0.9,   -0.8,   -0.7,   -0.6,   -0.6,   -0.7,   -0.5,  999.0,   -0.4,   -0.3,   -0.3,   -0.4,   -0.3,   -0.2,   -0.3,   -0.4,   -0.4,   -0.4,   -0.7,  999.0,  999.0,  999.0,  999.0,  999.0,  999.0,  999.0,  999.0,  999.0,  999.0
2012/01/21 16:20,  999.0,   -2.6,   -1.6,   -1.6,   -1.7,   -1.7,   -1.6,   -1.5,   -1.4,   -1.4,   -1.3,   -1.3,   -1.2,   -1.2,   -1.1,   -1.1,   -1.1,   -1.1,   -1.1,   -1.1,   -1.1,   -1.1,   -1.1,   -1.1,   -1.1,   -1.0,   -1.0,   -1.1,   -1.0,   -1.0,   -1.1,   -1.0,   -1.0,   -1.0,   -1.0,   -1.0,   -1.0,   -1.0,   -1.0,   -1.0,   -1.0,   -1.0,   -1.0,   -1.0,   -1.0,   -1.0,   -1.0,   -0.9,   -0.9,   -0.9,   -0.9,   -0.8,   -0.8,   -0.8,   -0.8,   -0.8,   -0.8,   -0.7,   -0.7,   -0.7,   -0.7,   -0.7,   -0.7,   -0.8,   -0.7,   -0.7,   -0.8,   -0.6,   -0.6,   -0.5,   -0.4,  999.0,  999.0,  999.0,  999.0,  999.0,  999.0,  999.0,  999.0,  999.0
2012/01/21 16:30,  999.0,   -2.7,   -1.7,   -1.6,   -1.6,   -1.7,   -1.5,   -1.4,   -1.4,   -1.3,   -1.3,   -1.2,   -1.2,   -1.2,   -1.2,   -1.2,   -1.2,   -1.2,   -1.2,   -1.2,   -1.1,   -1.1,   -1.1,   -1.1,   -1.1,   -1.1,   -1.0,   -1.0,   -1.0,   -0.9,   -0.9,   -0.9,   -0.9,   -0.8,   -0.8,   -0.8,   -0.7,   -0.7,   -0.9,   -1.0,   -1.2,   -1.1,   -1.2,   -1.2,   -1.1,   -0.9,   -1.0,   -0.9,   -0.9,   -0.8,   -0.8,   -0.7,   -0.7,   -0.7,   -0.7,   -0.6,   -0.7,   -0.7,   -0.6,   -0.7,   -0.6,   -0.7,   -0.7,   -0.8,   -0.6,   -0.6,   -0.6,   -0.6,   -0.5,   -0.5,  999.0,  999.0,  999.0,  999.0,  999.0,  999.0,  999.0,  999.0,  999.0,  999.0
2012/01/21 16:40,  999.0,  999.0,   -1.8,   -1.6,   -1.6,   -1.6,   -1.5,   -1.4,   -1.3,   -1.3,   -1.3,   -1.2,   -1.2,   -1.2,   -1.2,   -1.2,   -1.2,   -1.2,   -1.2,   -1.1,   -1.2,   -1.2,   -1.1,   -1.1,   -1.1,   -1.1,   -1.1,   -1.1,   -1.2,   -1.1,   -1.1,   -1.1,   -1.0,   -1.0,   -1.0,   -1.0,   -0.9,   -1.0,   -1.0,   -1.0,   -1.1,   -1.0,   -1.0,   -1.0,   -1.0,   -1.0,   -1.0,   -1.0,   -0.8,   -0.8,   -0.8,   -0.8,   -0.7,   -0.7,   -0.6,   -0.7,   -0.6,   -0.6,   -0.6,   -0.7,   -0.6,   -0.6,   -0.6,   -0.6,   -0.5,   -0.6,   -0.4,   -0.4,   -0.7,  999.0,  999.0,  999.0,  999.0,  999.0,  999.0,  999.0,  999.0,  999.0,  999.0,  999.0
2012/01/21 16:50,  999.0,  999.0,   -1.8,   -1.5,   -1.5,   -1.5,   -1.3,   -1.2,   -1.2,   -1.2,   -1.2,   -1.2,   -1.2,   -1.2,   -1.2,   -1.3,   -1.2,   -1.2,   -1.2,   -1.2,   -1.2,   -1.1,   -1.2,   -1.2,   -1.2,   -1.1,   -1.2,   -1.2,   -1.2,   -1.2,   -1.2,   -1.1,   -1.1,   -1.1,   -1.1,   -1.1,   -1.1,   -1.0,   -1.0,   -1.0,   -1.0,   -1.0,   -1.0,   -1.0,   -1.0,   -1.0,   -0.9,   -0.9,   -0.9,   -0.9,   -0.9,   -0.8,   -0.8,   -0.7,   -0.7,   -0.6,   -0.6,   -0.6,   -0.6,   -0.6,   -0.6,   -0.6,   -0.6,   -0.6,   -0.6,   -0.6,   -0.6,   -0.8,  999.0,   -0.7,  999.0,  999.0,  999.0,  999.0,  999.0,  999.0,  999.0,  999.0,  999.0,  999.0
2012/01/21 17:00,  999.0,  999.0,   -1.9,   -1.6,   -1.6,   -1.6,   -1.4,   -1.4,   -1.4,   -1.4,   -1.3,   -1.3,   -1.3,   -1.2,   -1.2,   -1.1,   -1.1,   -1.1,   -1.1,   -1.1,   -1.1,   -1.1,   -1.1,   -1.1,   -1.1,   -1.1,   -1.1,   -1.1,   -1.1,   -1.1,   -1.1,   -1.1,   -1.0,   -1.0,   -0.9,   -1.0,   -1.0,   -1.0,   -1.0,   -1.0,   -0.9,   -1.0,   -1.0,   -1.0,   -0.9,   -0.9,   -0.9,   -0.9,   -0.8,   -0.8,   -0.8,   -0.7,   -0.7,   -0.7,   -0.6,   -0.6,   -0.6,   -0.6,   -0.6,   -0.6,   -0.6,   -0.6,   -0.5,   -0.5,   -0.5,   -0.6,   -0.5,   -0.6,   -0.4,  999.0,  999.0,  999.0,  999.0,  999.0,  999.0,  999.0,  999.0,  999.0,  999.0,  999.0
2012/01/21 17:10,  999.0,  999.0,   -2.1,   -1.8,   -1.7,   -1.6,   -1.4,   -1.5,   -1.5,   -1.4,   -1.4,   -1.4,   -1.4,   -1.3,   -1.3,   -1.3,   -1.3,   -1.2,   -1.2,   -1.2,   -1.1,   -1.1,   -1.1,   -1.1,   -1.1,   -1.1,   -1.1,   -1.1,   -1.1,   -1.1,   -1.1,   -1.1,   -1.0,   -1.0,   -1.0,   -1.0,   -1.0,   -1.0,   -0.9,   -0.9,   -0.9,   -1.0,   -0.9,   -0.9,   -0.9,   -0.9,   -0.9,   -0.9,   -0.9,   -0.8,   -0.8,   -0.8,   -0.8,   -0.7,   -0.8,   -0.7,   -0.7,   -0.7,   -0.6,   -0.6,   -0.6,   -0.6,   -0.6,   -0.6,   -0.6,   -0.6,   -0.6,   -0.5,   -0.4,  999.0,  999.0,  999.0,  999.0,  999.0,  999.0,  999.0,  999.0,  999.0,  999.0,  999.0
2012/01/21 17:20,  999.0,  999.0,   -2.2,   -2.0,   -1.8,   -1.6,   -1.5,   -1.5,   -1.4,   -1.4,   -1.3,   -1.3,   -1.3,   -1.3,   -1.3,   -1.3,   -1.3,   -1.3,   -1.3,   -1.3,   -1.3,   -1.2,   -1.2,   -1.3,   -1.3,   -1.3,   -1.3,   -1.3,   -1.4,   -1.4,   -1.4,   -1.4,   -1.3,   -1.2,   -1.2,   -1.1,   -1.0,   -0.9,   -0.9,   -1.0,   -0.9,   -1.0,   -1.0,   -1.0,   -1.0,   -1.0,   -0.9,   -0.9,   -0.9,   -0.8,   -0.8,   -0.8,   -0.7,   -0.8,   -0.6,   -0.6,   -0.6,   -0.5,   -0.6,   -0.6,   -0.5,   -0.6,   -0.6,   -0.6,   -0.6,   -0.5,   -0.4,   -0.4,   -0.5,   -0.3,  999.0,  999.0,  999.0,  999.0,  999.0,  999.0,  999.0,  999.0,  999.0,  999.0
2012/01/21 17:30,  999.0,  999.0,   -2.0,   -1.7,   -1.7,   -1.6,   -1.5,   -1.5,   -1.5,   -1.4,   -1.3,   -1.3,   -1.2,   -1.2,   -1.2,   -1.2,   -1.2,   -1.2,   -1.2,   -1.2,   -1.2,   -1.2,   -1.2,   -1.2,   -1.2,   -1.2,   -1.2,   -1.2,   -1.1,   -1.1,   -1.1,   -1.2,   -1.2,   -1.1,   -1.1,   -1.1,   -1.0,   -1.0,   -1.0,   -1.0,   -1.0,   -1.0,   -1.0,   -1.0,   -0.9,   -1.0,   -0.9,   -0.9,   -0.9,   -0.8,   -0.8,   -0.8,   -0.7,   -0.7,   -0.6,   -0.6,   -0.7,   -0.6,   -0.6,   -0.6,   -0.6,   -0.5,   -0.6,   -0.5,   -0.7,   -0.5,   -0.5,   -0.4,   -0.3,   -0.1,  999.0,  999.0,  999.0,  999.0,  999.0,  999.0,  999.0,  999.0,  999.0,  999.0
2012/01/21 17:40,  999.0,  999.0,   -1.9,   -1.7,   -1.7,   -1.6,   -1.4,   -1.4,   -1.4,   -1.4,   -1.3,   -1.3,   -1.2,   -1.2,   -1.2,   -1.2,   -1.2,   -1.1,   -1.1,   -1.1,   -1.1,   -1.1,   -1.1,   -1.1,   -1.0,   -1.0,   -0.9,   -1.0,   -1.1,   -1.1,   -1.0,   -1.1,   -1.2,   -1.2,   -1.1,   -1.1,   -1.1,   -1.1,   -1.1,   -1.0,   -1.1,   -1.0,   -1.0,   -1.0,   -1.0,   -1.0,   -0.9,   -0.9,   -0.9,   -0.9,   -0.9,   -0.9,   -0.9,   -0.8,   -0.8,   -0.8,   -0.8,   -0.7,   -0.6,   -0.6,   -0.6,   -0.5,   -0.5,   -0.5,   -0.5,   -0.4,   -0.4,   -0.3,   -0.1,  999.0,  999.0,  999.0,  999.0,  999.0,  999.0,  999.0,  999.0,  999.0,  999.0,  999.0
2012/01/21 17:50,  999.0,  999.0,   -2.1,   -2.0,   -2.0,   -1.7,   -1.4,   -1.4,   -1.4,   -1.4,   -1.4,   -1.3,   -1.3,   -1.3,   -1.2,   -1.2,   -1.3,   -1.2,   -1.2,   -1.2,   -1.2,   -1.2,   -1.2,   -1.1,   -1.1,   -1.1,   -1.1,   -1.1,   -1.0,   -0.9,   -1.0,   -1.0,   -1.0,   -1.0,   -1.0,   -1.0,   -1.0,   -1.0,   -1.0,   -1.0,   -1.0,   -1.0,   -1.0,   -1.0,   -1.0,   -1.0,   -1.0,   -0.9,   -0.9,   -0.8,   -0.7,   -0.7,   -0.7,   -0.6,   -0.7,   -0.7,   -0.7,   -0.6,   -0.5,   -0.5,   -0.4,   -0.4,   -0.4,   -0.3,   -0.3,   -0.4,   -0.3,   -0.4,   -0.2,   -0.2,  999.0,   -0.1,  999.0,  999.0,  999.0,  999.0,  999.0,  999.0,  999.0,  999.0
2012/01/21 18:00,  999.0,  999.0,   -2.2,   -1.8,   -1.7,   -1.6,   -1.4,   -1.4,   -1.3,   -1.3,   -1.4,   -1.3,   -1.2,   -1.2,   -1.2,   -1.2,   -1.2,   -1.1,   -1.2,   -1.1,   -1.2,   -1.2,   -1.2,   -1.1,   -1.1,   -1.1,   -1.1,   -1.0,   -0.9,   -0.9,   -0.8,   -0.8,   -0.8,   -0.8,   -0.8,   -0.9,   -0.9,   -0.9,   -0.9,   -0.9,   -0.9,   -0.9,   -0.9,   -0.9,   -0.9,   -0.8,   -0.7,   -0.8,   -0.7,   -0.7,   -0.6,   -0.6,   -0.6,   -0.7,   -0.7,   -0.7,   -0.7,   -0.7,   -0.7,   -0.7,   -0.7,   -0.7,   -0.6,   -0.6,   -0.6,   -0.5,   -0.7,   -0.4,   -0.4,  999.0,  999.0,  999.0,  999.0,  999.0,  999.0,  999.0,  999.0,  999.0,  999.0,  999.0
2012/01/21 18:10,  999.0,  999.0,   -2.3,   -2.0,   -2.0,   -1.7,   -1.5,   -1.4,   -1.4,   -1.4,   -1.3,   -1.3,   -1.3,   -1.3,   -1.3,   -1.3,   -1.3,   -1.3,   -1.3,   -1.3,   -1.3,   -1.2,   -1.1,   -1.2,   -1.2,   -1.1,   -1.1,   -1.1,   -1.1,   -1.1,   -1.0,   -1.0,   -1.0,   -1.0,   -1.0,   -1.1,   -1.1,   -1.0,   -1.0,   -1.0,   -0.9,   -0.9,   -0.8,   -0.7,   -0.7,   -0.7,   -0.6,   -0.6,   -0.6,   -0.6,   -0.7,   -0.6,   -0.6,   -0.6,   -0.6,   -0.6,   -0.6,   -0.6,   -0.6,   -0.6,   -0.5,   -0.5,   -0.5,   -0.6,   -0.6,   -0.5,   -0.5,   -0.4,  999.0,  999.0,  999.0,  999.0,  999.0,  999.0,  999.0,  999.0,  999.0,  999.0,  999.0,  999.0
2012/01/21 18:20,  999.0,  999.0,   -2.9,   -2.5,   -2.3,   -1.9,   -1.7,   -1.5,   -1.5,   -1.4,   -1.3,   -1.3,   -1.2,   -1.2,   -1.1,   -1.1,   -1.1,   -1.1,   -1.1,   -1.1,   -1.1,   -1.1,   -1.1,   -1.1,   -1.1,   -1.1,   -1.2,   -1.2,   -1.3,   -1.4,   -1.4,   -1.3,   -1.3,   -1.2,   -1.2,   -1.1,   -1.1,   -1.1,   -1.1,   -1.1,   -1.1,   -1.1,   -1.0,   -1.0,   -1.0,   -1.0,   -1.0,   -1.0,   -1.0,   -1.0,   -0.9,   -0.8,   -0.8,   -0.8,   -0.7,   -0.7,   -0.6,   -0.6,   -0.6,   -0.6,   -0.5,   -0.5,   -0.4,   -0.4,   -0.3,   -0.3,   -0.1,   -0.3,  999.0,  999.0,  999.0,  999.0,   -0.1,  999.0,  999.0,  999.0,  999.0,  999.0,  999.0,  999.0
2012/01/21 18:30,  999.0,  999.0,   -2.9,   -2.5,   -2.3,   -2.0,   -1.6,   -1.3,   -1.2,   -1.2,   -1.2,   -1.2,   -1.2,   -1.1,   -1.1,   -1.1,   -1.1,   -1.1,   -1.1,   -1.1,   -1.0,   -1.0,   -1.0,   -1.1,   -1.1,   -1.1,   -1.1,   -1.1,   -1.0,   -1.0,   -0.9,   -0.8,   -0.8,   -0.8,   -0.8,   -0.8,   -0.8,   -0.8,   -0.8,   -0.8,   -0.8,   -0.8,   -0.7,   -0.7,   -0.6,   -0.6,   -0.6,   -0.6,   -0.6,   -0.6,   -0.6,   -0.6,   -0.6,   -0.6,   -0.6,   -0.5,   -0.6,   -0.6,   -0.5,   -0.4,   -0.6,   -0.5,   -0.4,   -0.3,   -0.2,   -0.2,   -0.1,    0.0,    0.1,  999.0,  999.0,  999.0,  999.0,  999.0,  999.0,  999.0,  999.0,  999.0,  999.0,  999.0
2012/01/21 18:40,  999.0,  999.0,   -2.5,   -2.3,   -2.2,   -2.0,   -1.7,   -1.4,   -1.4,   -1.3,   -1.3,   -1.3,   -1.3,   -1.4,   -1.4,   -1.4,   -1.4,   -1.4,   -1.4,   -1.3,   -1.3,   -1.3,   -1.3,   -1.3,   -1.3,   -1.2,   -1.2,   -1.2,   -1.2,   -1.1,   -1.1,   -1.1,   -1.0,   -1.0,   -1.0,   -1.1,   -1.0,   -1.0,   -1.0,   -1.1,   -1.1,   -1.1,   -1.0,   -1.0,   -1.0,   -1.1,   -1.0,   -1.0,   -0.9,   -1.0,   -1.0,   -1.0,   -0.9,   -0.9,   -0.9,   -0.9,   -0.8,   -0.8,   -0.9,   -0.8,   -0.8,   -0.6,   -0.6,   -0.6,   -0.7,   -0.8,  999.0,  999.0,  999.0,  999.0,  999.0,  999.0,  999.0,  999.0,  999.0,  999.0,  999.0,  999.0,  999.0,  999.0
2012/01/21 18:50,  999.0,  999.0,   -3.9,   -3.7,   -3.1,   -2.4,   -1.8,   -1.6,   -1.6,   -1.6,   -1.6,   -1.5,   -1.5,   -1.5,   -1.5,   -1.5,   -1.5,   -1.4,   -1.4,   -1.4,   -1.4,   -1.3,   -1.3,   -1.2,   -1.2,   -1.1,   -1.0,   -0.9,   -0.9,   -0.9,   -0.9,   -0.9,   -0.9,   -0.9,   -0.9,   -1.0,   -1.0,   -1.1,   -1.2,   -1.2,   -1.1,   -1.2,   -1.2,   -1.1,   -1.1,   -1.1,   -1.1,   -1.0,   -1.1,   -1.0,   -1.0,   -1.0,   -0.9,   -0.9,   -0.7,   -0.8,   -0.6,   -0.6,   -0.5,   -0.6,   -0.5,   -0.5,   -0.4,   -0.4,   -0.4,   -0.5,   -0.5,   -0.3,  999.0,  999.0,  999.0,  999.0,  999.0,  999.0,  999.0,  999.0,  999.0,  999.0,  999.0,  999.0
2012/01/21 19:00,  999.0,  999.0,  999.0,  999.0,  999.0,  999.0,  999.0,   -1.7,   -1.6,   -1.5,   -1.5,   -1.5,   -1.4,   -1.4,   -1.4,   -1.4,   -1.3,   -1.3,   -1.3,   -1.3,   -1.2,   -1.2,   -1.2,   -1.2,   -1.2,   -1.2,   -1.2,   -1.2,   -1.2,   -1.1,   -1.1,   -1.1,   -1.0,   -1.0,   -0.9,   -0.8,   -0.7,   -0.8,   -0.8,   -0.9,   -0.8,   -0.9,   -0.9,   -0.9,   -0.9,   -0.9,   -0.8,   -0.8,   -0.7,   -0.7,   -0.7,   -0.8,   -0.8,   -0.7,   -0.7,   -0.7,   -0.6,   -0.6,   -0.5,   -0.5,   -0.5,   -0.6,   -0.5,   -0.6,   -0.5,   -0.3,  999.0,  999.0,  999.0,  999.0,  999.0,  999.0,  999.0,  999.0,  999.0,  999.0,  999.0,  999.0,  999.0,  999.0
2012/01/21 19:10,  999.0,   -5.6,   -5.0,   -4.7,   -4.1,   -3.0,  999.0,   -1.7,   -1.5,   -1.4,   -1.4,   -1.4,   -1.3,   -1.3,   -1.3,   -1.3,   -1.3,   -1.4,   -1.4,   -1.3,   -1.3,   -1.3,   -1.3,   -1.2,   -1.2,   -1.2,   -1.2,   -1.2,   -1.2,   -1.1,   -1.1,   -1.0,   -1.0,   -0.9,   -1.0,   -1.1,   -1.1,   -1.1,   -1.1,   -1.1,   -1.1,   -1.1,   -1.1,   -1.2,   -1.1,   -1.2,   -1.1,   -1.0,   -0.9,   -0.8,   -0.7,   -0.8,   -0.7,   -0.6,   -0.7,   -0.7,   -0.6,   -0.7,   -0.6,   -0.7,   -0.6,   -0.6,   -0.5,  999.0,   -0.6,  999.0,  999.0,  999.0,  999.0,  999.0,  999.0,  999.0,  999.0,  999.0,  999.0,  999.0,  999.0,  999.0,  999.0,  999.0
2012/01/21 19:20,   -5.5,   -5.6,   -5.3,   -5.0,   -4.5,   -3.5,  999.0,  999.0,   -1.6,   -1.5,   -1.6,   -1.5,   -1.4,   -1.4,   -1.3,   -1.3,   -1.3,   -1.3,   -1.3,   -1.3,   -1.3,   -1.3,   -1.3,   -1.2,   -1.2,   -1.3,   -1.2,   -1.1,   -1.1,   -1.1,   -1.1,   -1.1,   -1.1,   -1.0,   -0.9,   -0.9,   -0.8,   -0.8,   -0.9,   -0.8,   -0.8,   -0.8,   -0.7,   -0.7,   -0.7,   -0.7,   -0.8,   -0.7,   -0.8,   -0.8,   -0.8,   -0.8,   -0.8,   -0.8,   -0.7,   -0.8,   -0.7,   -0.7,   -0.7,   -0.7,   -0.7,   -0.4,   -0.3,  999.0,  999.0,   -0.5,   -0.1,  999.0,  999.0,  999.0,  999.0,  999.0,  999.0,  999.0,  999.0,  999.0,  999.0,  999.0,  999.0,  999.0
2012/01/21 19:30,   -5.6,   -5.7,   -5.7,   -5.5,   -5.3,   -4.4,  999.0,  999.0,   -1.4,   -1.4,   -1.4,   -1.3,   -1.3,   -1.2,   -1.2,   -1.2,   -1.3,   -1.3,   -1.3,   -1.3,   -1.3,   -1.3,   -1.2,   -1.2,   -1.1,   -1.1,   -1.1,   -1.1,   -1.0,   -1.0,   -1.0,   -1.0,   -0.9,   -0.8,   -0.8,   -0.8,   -0.7,   -0.7,   -0.8,   -0.8,   -0.8,   -0.9,   -0.9,   -0.8,   -0.8,   -0.8,   -0.8,   -0.8,   -0.8,   -0.8,   -0.7,   -0.6,   -0.6,   -0.7,   -0.7,   -0.6,   -0.7,   -0.6,   -0.4,   -0.4,   -0.5,   -0.5,   -0.6,   -0.3,   -0.7,  999.0,  999.0,  999.0,  999.0,  999.0,  999.0,  999.0,  999.0,  999.0,  999.0,  999.0,  999.0,  999.0,  999.0,  999.0
2012/01/21 19:40,   -5.3,   -5.3,   -5.4,   -5.3,  999.0,   -4.4,   -3.0,   -1.9,   -1.4,   -1.4,   -1.4,   -1.4,   -1.3,   -1.3,   -1.3,   -1.3,   -1.2,   -1.2,   -1.2,   -1.3,   -1.2,   -1.2,   -1.2,   -1.1,   -1.1,   -1.1,   -1.0,   -1.0,   -1.0,   -0.9,   -0.8,   -0.9,   -0.9,   -0.8,   -0.8,   -0.6,   -0.6,   -0.6,   -0.5,   -0.4,   -0.4,   -0.4,   -0.4,   -0.3,   -0.4,   -0.4,   -0.4,   -0.4,   -0.5,   -0.5,   -0.5,   -0.5,   -0.4,   -0.4,   -0.4,   -0.4,   -0.4,   -0.4,   -0.3,   -0.2,   -0.1,   -0.5,  999.0,  999.0,  999.0,  999.0,   -0.1,  999.0,  999.0,  999.0,  999.0,  999.0,  999.0,  999.0,  999.0,  999.0,  999.0,  999.0,  999.0,  999.0
2012/01/21 19:50,   -4.6,   -4.6,   -5.0,   -4.8,   -4.7,   -4.7,   -3.1,   -1.9,   -1.4,   -1.3,   -1.3,   -1.3,   -1.3,   -1.4,   -1.3,   -1.2,   -1.2,   -1.3,   -1.4,   -1.3,   -1.2,   -1.2,   -1.1,   -1.1,   -1.1,   -1.0,   -1.0,   -1.0,   -1.0,   -1.0,   -0.9,   -1.0,   -0.9,   -0.8,   -0.8,   -0.8,   -0.7,   -0.6,   -0.5,   -0.4,   -0.5,   -0.5,   -0.5,   -0.5,   -0.5,   -0.6,   -0.6,   -0.5,   -0.6,   -0.6,   -0.6,   -0.7,   -0.7,   -0.8,   -0.8,   -0.8,   -0.8,   -0.6,   -0.5,   -0.4,   -0.3,  999.0,  999.0,   -0.7,   -0.4,  999.0,  999.0,  999.0,  999.0,  999.0,  999.0,  999.0,  999.0,  999.0,  999.0,  999.0,  999.0,  999.0,  999.0,  999.0
2012/01/21 20:00,   -4.4,   -4.5,   -4.5,   -4.5,   -4.5,   -4.5,   -2.9,   -1.7,   -1.2,   -1.1,   -1.2,   -1.2,   -1.2,   -1.1,   -1.2,   -1.2,   -1.2,   -1.2,   -1.3,   -1.3,   -1.3,   -1.2,   -1.2,   -1.1,   -1.1,   -1.0,   -1.0,   -1.0,   -1.0,   -0.9,   -0.9,   -0.9,   -0.9,   -0.7,   -0.7,   -0.7,   -0.7,   -0.8,   -0.7,   -0.8,   -0.8,   -0.8,   -0.8,   -0.7,   -0.7,   -0.6,   -0.6,   -0.6,   -0.6,   -0.6,   -0.5,   -0.7,   -0.6,   -0.5,   -0.5,   -0.5,   -0.5,   -0.4,   -0.0,  999.0,  999.0,  999.0,  999.0,  999.0,  999.0,  999.0,  999.0,  999.0,  999.0,  999.0,  999.0,  999.0,  999.0,  999.0,  999.0,  999.0,  999.0,  999.0,  999.0,  999.0
2012/01/21 20:10,   -4.9,   -5.0,   -5.1,   -5.2,   -5.3,   -4.3,   -2.4,   -1.6,   -1.2,   -1.2,   -1.2,   -1.2,   -1.2,   -1.2,   -1.3,   -1.3,   -1.3,   -1.3,   -1.3,   -1.3,   -1.3,   -1.2,   -1.2,   -1.2,   -1.2,   -1.1,   -1.1,   -1.1,   -1.0,   -1.0,   -0.9,   -0.9,   -0.8,   -0.8,   -0.8,   -0.8,   -0.8,   -0.9,   -0.9,   -0.8,   -0.7,   -0.7,   -0.7,   -0.7,   -0.7,   -0.6,   -0.6,   -0.6,   -0.5,   -0.6,   -0.6,   -0.6,   -0.5,   -0.4,   -0.5,   -0.5,   -0.4,   -0.3,   -0.3,   -0.4,  999.0,  999.0,  999.0,  999.0,  999.0,  999.0,  999.0,  999.0,  999.0,  999.0,  999.0,  999.0,  999.0,  999.0,  999.0,  999.0,  999.0,  999.0,  999.0,  999.0
2012/01/21 20:20,   -5.1,   -5.1,   -5.2,   -5.3,   -4.9,   -3.9,   -2.2,   -1.5,   -1.2,   -1.2,   -1.2,   -1.2,   -1.2,   -1.2,   -1.3,   -1.3,   -1.3,   -1.2,   -1.2,   -1.2,   -1.2,   -1.2,   -1.2,   -1.1,   -1.1,   -1.0,   -0.9,   -1.0,   -1.0,   -0.9,   -0.9,   -0.9,   -0.8,   -0.8,   -0.7,   -0.7,   -0.6,   -0.6,   -0.6,   -0.6,   -0.6,   -0.6,   -0.6,   -0.6,   -0.7,   -0.6,   -0.7,   -0.7,   -0.7,   -0.6,   -0.6,   -0.5,   -0.4,   -0.3,   -0.2,   -0.1,   -0.3,   -0.2,  999.0,   -0.3,  999.0,  999.0,  999.0,  999.0,  999.0,  999.0,  999.0,  999.0,  999.0,  999.0,  999.0,  999.0,  999.0,  999.0,  999.0,  999.0,  999.0,  999.0,  999.0,  999.0
2012/01/21 20:30,   -5.1,   -5.1,   -5.3,   -5.1,   -4.7,   -3.5,   -2.1,   -1.4,   -1.3,   -1.2,   -1.2,   -1.2,   -1.2,   -1.2,   -1.2,   -1.2,   -1.2,   -1.2,   -1.2,   -1.2,   -1.2,   -1.2,   -1.2,   -1.1,   -1.0,   -1.0,   -1.0,   -1.0,   -1.0,   -1.0,   -1.1,   -1.2,   -1.1,   -1.1,   -1.0,   -1.1,   -1.1,   -1.2,   -1.1,   -1.1,   -1.1,   -1.1,   -1.1,   -1.1,   -1.0,   -0.8,   -0.8,   -0.8,   -0.7,   -0.7,   -0.6,   -0.7,   -0.7,   -0.7,   -0.3,   -0.2,   -0.7,   -0.9,   -1.0,  999.0,   -1.0,  999.0,   -0.3,   -0.4,   -0.3,  999.0,  999.0,  999.0,  999.0,  999.0,  999.0,  999.0,  999.0,  999.0,  999.0,  999.0,  999.0,  999.0,  999.0,  999.0
2012/01/21 20:40,   -4.0,   -4.1,   -4.2,   -4.5,   -4.3,   -2.9,   -1.6,   -1.2,   -1.2,   -1.2,   -1.2,   -1.2,   -1.2,   -1.2,   -1.2,   -1.2,   -1.2,   -1.2,   -1.2,   -1.1,   -1.1,   -1.1,   -1.0,   -1.1,   -1.1,   -1.1,   -1.1,   -1.1,   -1.1,   -1.1,   -1.1,   -1.1,   -1.1,   -1.1,   -1.1,   -1.1,   -1.2,   -1.2,   -1.1,   -1.2,   -1.1,   -1.1,   -1.1,   -1.0,   -1.0,   -0.9,   -0.8,   -0.8,   -0.7,   -0.7,   -0.6,   -0.5,   -0.5,   -0.5,   -0.4,   -0.3,   -0.2,   -0.3,   -0.3,   -0.2,   -0.3,   -0.4,  999.0,  999.0,   -0.2,   -0.2,    0.5,  999.0,  999.0,  999.0,  999.0,  999.0,  999.0,  999.0,  999.0,  999.0,  999.0,  999.0,  999.0,  999.0
2012/01/21 20:50,   -4.2,   -4.5,   -4.4,   -4.6,   -4.1,   -2.7,   -1.5,   -1.1,   -1.1,   -1.1,   -1.2,   -1.2,   -1.2,   -1.3,   -1.3,   -1.3,   -1.3,   -1.3,   -1.3,   -1.3,   -1.2,   -1.2,   -1.2,   -1.2,   -1.2,   -1.1,   -1.2,   -1.2,   -1.2,   -1.2,   -1.2,   -1.2,   -1.2,   -1.3,   -1.3,   -1.4,   -1.4,   -1.4,   -1.4,   -1.4,   -1.3,   -1.3,   -1.2,   -1.1,   -1.1,   -1.0,   -0.9,   -0.9,   -0.8,   -0.8,   -0.8,   -0.8,   -0.7,   -0.7,   -0.7,   -0.5,   -0.4,   -0.4,   -0.6,   -0.5,   -0.6,   -0.3,   -0.4,   -0.4,   -0.7,   -0.1,    0.1,  999.0,  999.0,  999.0,  999.0,  999.0,  999.0,  999.0,  999.0,  999.0,  999.0,  999.0,  999.0,  999.0
2012/01/21 21:00,   -3.7,   -3.8,   -3.6,   -3.3,  999.0,   -2.7,   -1.3,   -1.0,   -1.1,   -1.1,   -1.1,   -1.2,   -1.2,   -1.3,   -1.3,   -1.3,   -1.3,   -1.3,   -1.2,   -1.3,   -1.3,   -1.2,   -1.2,   -1.2,   -1.2,   -1.2,   -1.2,   -1.3,   -1.2,   -1.2,   -1.1,   -1.2,   -1.2,   -1.1,   -1.2,   -1.3,   -1.3,   -1.4,   -1.4,   -1.5,   -1.3,   -1.3,   -1.2,   -1.1,   -1.0,   -1.0,   -1.0,   -1.0,   -0.9,   -0.9,   -0.9,   -0.8,   -0.7,   -0.7,   -0.5,   -0.5,   -0.2,   -0.4,   -0.3,   -0.7,   -0.1,   -0.4,   -0.2,   -0.6,   -0.5,   -0.7,  999.0,  999.0,  999.0,  999.0,  999.0,  999.0,  999.0,  999.0,  999.0,  999.0,  999.0,  999.0,  999.0,  999.0
2012/01/21 21:10,   -5.0,   -5.1,   -5.3,  999.0,  999.0,   -2.6,   -1.6,   -1.4,   -1.3,   -1.3,   -1.3,   -1.2,   -1.3,   -1.2,   -1.2,   -1.3,   -1.2,   -1.2,   -1.2,   -1.1,   -1.2,   -1.2,   -1.2,   -1.1,   -1.1,   -1.0,   -0.9,   -0.9,   -0.9,   -0.9,   -1.0,   -1.0,   -1.1,   -1.3,   -1.5,   -1.6,   -1.5,   -1.3,   -1.2,   -1.2,   -1.1,   -1.0,   -1.0,   -1.0,   -0.9,   -0.9,   -0.8,   -0.7,   -0.5,   -0.4,   -0.4,   -0.3,   -0.2,   -0.3,   -0.1,   -0.3,   -0.3,   -0.4,   -0.3,   -0.7,   -0.5,   -0.7,   -0.7,   -0.8,  999.0,   -0.4,  999.0,  999.0,  999.0,  999.0,  999.0,  999.0,  999.0,  999.0,  999.0,  999.0,  999.0,  999.0,  999.0,  999.0
2012/01/21 21:20,   -4.1,   -4.2,   -4.0,   -3.7,  999.0,  999.0,  999.0,   -1.3,   -1.2,   -1.2,   -1.1,   -1.2,   -1.2,   -1.2,   -1.2,   -1.2,   -1.2,   -1.2,   -1.2,   -1.2,   -1.3,   -1.3,   -1.2,   -1.2,   -1.1,   -0.9,   -0.9,   -0.9,   -1.0,   -1.0,   -1.0,   -1.0,   -1.1,   -1.1,   -1.1,   -1.1,   -1.1,   -1.0,   -1.0,   -0.9,   -0.8,   -0.8,   -0.8,   -0.7,   -0.7,   -0.6,   -0.7,   -0.6,   -0.6,   -0.6,   -0.6,   -0.6,   -0.6,   -0.5,   -0.6,   -0.6,   -0.7,   -0.7,   -0.6,   -0.6,   -0.6,   -0.4,   -0.7,   -0.4,   -0.5,   -0.1,   -0.2,    0.0,    0.1,  999.0,  999.0,  999.0,  999.0,  999.0,  999.0,  999.0,  999.0,  999.0,  999.0,  999.0
2012/01/21 21:30,  999.0,   -3.0,   -3.1,   -3.3,   -3.4,   -2.6,   -1.9,   -1.3,   -1.1,   -1.2,   -1.2,   -1.2,   -1.1,   -1.3,   -1.3,   -1.2,   -1.2,   -1.3,   -1.3,   -1.2,   -1.2,   -1.0,   -0.8,   -0.8,   -0.8,   -0.8,   -0.9,   -1.0,   -1.1,   -1.2,   -1.1,   -1.3,   -1.5,   -1.4,   -1.3,   -1.2,   -1.2,   -1.1,   -1.0,   -1.0,   -0.9,   -0.9,   -0.8,   -0.9,   -0.9,   -1.0,   -1.0,   -0.9,   -0.9,   -0.8,   -0.8,   -0.9,   -1.0,   -1.2,   -1.2,   -1.2,   -1.0,   -1.0,   -0.7,   -0.8,   -0.9,   -0.6,   -0.7,   -0.7,   -0.6,   -0.4,   -0.0,  999.0,  999.0,  999.0,  999.0,  999.0,  999.0,  999.0,  999.0,  999.0,  999.0,  999.0,  999.0,  999.0
2012/01/21 21:40,   -4.0,   -3.6,   -3.6,   -3.6,   -3.8,   -3.3,   -2.3,   -1.7,   -1.6,   -1.4,   -1.3,   -1.7,   -1.4,   -1.3,   -1.3,   -1.3,   -1.4,   -1.4,   -1.4,   -1.4,   -1.3,   -1.2,   -1.2,   -1.1,   -1.1,   -1.1,   -1.1,   -1.2,   -1.3,   -1.2,   -1.2,   -1.2,   -1.2,   -1.1,   -1.1,   -1.1,   -1.1,   -1.0,   -1.0,   -1.0,   -1.0,   -1.0,   -0.9,   -0.9,   -0.9,   -0.8,   -0.8,   -0.7,   -0.6,   -0.7,   -0.5,   -0.5,   -0.4,   -0.5,   -0.3,   -0.5,   -0.6,  999.0,   -0.6,  999.0,   -0.4,   -0.1,  999.0,  999.0,  999.0,  999.0,  999.0,  999.0,  999.0,  999.0,  999.0,  999.0,  999.0,  999.0,  999.0,  999.0,  999.0,  999.0,  999.0,  999.0
2012/01/21 21:50,   -3.5,   -3.5,   -3.2,   -2.8,   -2.2,   -2.1,   -1.7,   -1.2,   -1.0,  999.0,  999.0,   -0.1,   -0.9,   -0.9,   -0.8,   -0.7,   -0.7,   -0.8,   -0.7,   -0.7,   -0.7,   -0.9,   -0.8,   -0.9,   -0.9,   -0.9,   -1.0,   -1.0,   -1.0,   -1.2,   -1.1,   -1.1,   -0.9,   -0.9,   -0.8,   -0.7,   -0.7,   -0.7,   -0.7,   -0.6,   -0.5,   -0.4,   -0.5,   -0.5,   -0.3,   -0.3,   -0.4,   -0.5,   -0.3,   -0.4,    0.1,    0.1,    0.1,  999.0,    0.6,  999.0,  999.0,  999.0,  999.0,  999.0,  999.0,  999.0,  999.0,  999.0,  999.0,  999.0,  999.0,  999.0,  999.0,  999.0,  999.0,  999.0,  999.0,  999.0,  999.0,  999.0,  999.0,  999.0,  999.0,  999.0
2012/01/21 22:00,  999.0,  999.0,   -3.2,   -2.6,   -2.8,   -2.2,   -1.4,   -1.0,   -1.0,   -0.7,   -0.7,   -0.6,   -0.5,   -0.9,   -1.1,   -1.2,   -1.2,   -1.3,   -1.3,   -1.2,   -1.3,   -1.3,   -1.2,   -1.2,   -1.1,   -1.1,   -1.1,   -1.0,   -1.0,   -0.9,   -0.8,   -0.7,   -0.8,   -0.7,   -0.6,   -0.6,   -0.6,   -0.7,   -0.8,   -0.9,   -1.0,   -0.9,   -1.0,   -0.9,   -0.9,   -0.9,   -0.9,   -0.5,   -0.5,   -0.3,   -0.3,   -0.3,   -0.1,   -0.1,    0.1,    0.3,    0.1,  999.0,  999.0,  999.0,  999.0,  999.0,  999.0,  999.0,  999.0,  999.0,  999.0,  999.0,  999.0,  999.0,  999.0,  999.0,  999.0,  999.0,  999.0,  999.0,  999.0,  999.0,  999.0,  999.0
2012/01/21 22:10,  999.0,  999.0,   -3.2,   -3.4,   -3.4,   -2.4,   -1.2,   -1.0,   -0.9,   -0.9,   -0.8,   -0.4,   -0.7,   -0.7,   -0.5,   -0.3,   -0.5,   -0.7,   -0.9,   -1.0,   -1.2,   -1.2,   -1.1,   -1.0,   -0.9,   -0.9,   -0.9,   -0.8,   -0.8,   -0.6,   -0.6,   -0.7,   -0.6,   -0.6,   -0.5,   -0.5,   -0.6,   -0.6,   -0.5,   -0.4,   -0.5,   -0.3,   -0.3,   -0.4,  999.0,  999.0,  999.0,  999.0,   -0.2,   -0.3,   -0.0,  999.0,  999.0,  999.0,  999.0,  999.0,  999.0,  999.0,  999.0,  999.0,  999.0,  999.0,  999.0,  999.0,  999.0,  999.0,  999.0,  999.0,  999.0,  999.0,  999.0,  999.0,  999.0,  999.0,  999.0,  999.0,  999.0,  999.0,  999.0,  999.0
2012/01/21 22:20,  999.0,  999.0,  999.0,   -2.1,   -2.3,  999.0,   -1.2,   -0.9,   -0.9,   -0.8,   -0.6,   -0.0,    0.1,    0.1,    0.1,    0.1,   -0.1,   -0.3,   -0.7,   -1.0,   -1.1,   -1.2,   -1.2,   -1.2,   -1.2,   -1.0,   -0.8,   -0.8,   -0.9,   -0.9,   -0.8,   -0.7,   -0.8,   -0.5,   -0.7,   -0.8,   -0.7,   -1.0,   -1.0,   -0.6,   -0.4,   -0.6,   -0.6,    0.1,  999.0,  999.0,    0.3,   -0.1,   -0.4,  999.0,   -0.1,   -0.1,  999.0,  999.0,  999.0,  999.0,  999.0,  999.0,  999.0,  999.0,  999.0,  999.0,  999.0,  999.0,  999.0,  999.0,  999.0,  999.0,  999.0,  999.0,  999.0,  999.0,  999.0,  999.0,  999.0,  999.0,  999.0,  999.0,  999.0,  999.0
2012/01/21 22:30,  999.0,  999.0,  999.0,  999.0,   -1.9,   -1.9,   -1.1,   -1.3,   -1.2,   -0.5,   -0.5,   -0.1,   -0.4,   -0.4,   -0.4,   -0.4,  999.0,   -1.6,   -1.7,   -2.2,   -1.7,   -1.7,   -1.9,   -1.8,   -1.7,   -1.7,   -1.8,   -1.8,   -1.8,   -1.8,   -1.7,   -1.8,   -1.8,   -1.3,   -1.2,   -0.8,   -1.3,   -1.2,   -1.3,   -1.4,   -1.1,   -0.6,   -0.5,   -0.7,    0.2,   -0.1,    0.4,    0.3,    0.0,    0.3,    0.1,  999.0,  999.0,  999.0,  999.0,  999.0,  999.0,  999.0,  999.0,  999.0,  999.0,  999.0,  999.0,  999.0,  999.0,  999.0,  999.0,  999.0,  999.0,  999.0,  999.0,  999.0,  999.0,  999.0,  999.0,  999.0,  999.0,  999.0,  999.0,  999.0
2012/01/21 22:40,  999.0,  999.0,  999.0,   -3.5,   -3.1,   -2.4,   -2.1,   -2.1,   -2.0,   -1.9,   -1.7,   -1.7,   -1.7,   -1.9,   -2.1,   -2.3,   -2.2,   -2.2,   -2.2,   -2.3,   -2.2,   -2.3,   -2.5,   -2.3,   -2.3,   -2.3,   -2.2,   -2.2,   -2.1,   -1.9,   -1.9,   -2.2,   -2.0,   -1.3,   -1.0,   -1.3,   -1.2,   -1.0,   -0.7,   -0.7,   -0.8,   -0.7,   -0.7,   -0.5,   -0.8,   -0.7,   -0.3,   -0.2,   -0.2,  999.0,  999.0,    0.4,  999.0,  999.0,  999.0,  999.0,  999.0,  999.0,  999.0,  999.0,  999.0,  999.0,  999.0,  999.0,  999.0,  999.0,  999.0,  999.0,  999.0,  999.0,  999.0,  999.0,  999.0,  999.0,  999.0,  999.0,  999.0,  999.0,  999.0,  999.0
2012/01/21 22:50,  999.0,  999.0,   -3.9,   -3.8,   -2.9,   -2.1,   -1.4,   -1.2,   -1.1,   -1.1,   -0.9,   -0.5,   -1.2,   -1.2,   -1.2,   -1.8,   -1.8,   -2.0,   -2.1,   -2.1,   -1.9,   -1.9,   -1.8,   -1.7,   -1.7,   -1.6,   -1.5,   -1.4,   -1.4,   -1.3,   -1.3,   -1.1,   -1.1,   -1.1,   -1.0,   -1.0,   -0.8,   -0.9,   -0.7,   -0.5,   -0.6,   -0.6,   -0.5,   -0.5,   -0.3,  999.0,   -0.1,   -0.1,   -0.1,    0.0,  999.0,  999.0,  999.0,  999.0,  999.0,  999.0,  999.0,  999.0,  999.0,  999.0,  999.0,  999.0,  999.0,  999.0,  999.0,  999.0,  999.0,  999.0,  999.0,  999.0,  999.0,  999.0,  999.0,  999.0,  999.0,  999.0,  999.0,  999.0,  999.0,  999.0
2012/01/21 23:00,  999.0,  999.0,  999.0,  999.0,  999.0,  999.0,   -1.2,   -1.0,   -1.1,   -0.8,   -0.8,   -0.2,   -0.1,   -0.2,   -0.2,   -0.8,   -1.1,   -1.0,   -1.3,   -1.4,   -1.7,   -1.8,   -1.8,   -1.7,   -1.5,   -1.4,   -1.2,   -1.2,   -1.3,   -1.1,   -1.2,   -1.2,   -1.1,   -1.1,   -1.2,   -1.1,   -0.9,   -0.9,   -1.0,   -1.1,   -0.7,   -0.5,   -1.0,   -0.4,   -0.3,   -0.1,   -0.1,   -0.6,  999.0,  999.0,  999.0,  999.0,  999.0,  999.0,  999.0,  999.0,  999.0,  999.0,  999.0,  999.0,  999.0,  999.0,  999.0,  999.0,  999.0,  999.0,  999.0,  999.0,  999.0,  999.0,  999.0,  999.0,  999.0,  999.0,  999.0,  999.0,  999.0,  999.0,  999.0,  999.0
2012/01/21 23:10,  999.0,  999.0,  999.0,  999.0,  999.0,   -1.7,   -1.1,   -1.0,   -0.6,   -0.7,   -0.4,   -0.3,   -0.2,   -0.0,   -0.2,   -0.2,   -0.1,   -0.6,   -1.3,   -1.6,   -1.8,   -1.7,   -1.5,   -1.5,   -1.5,   -1.4,   -1.2,   -1.0,   -1.0,   -1.0,   -1.0,   -0.9,   -0.8,   -0.9,   -0.7,   -0.7,   -0.4,   -0.4,   -0.4,    0.0,   -0.1,   -0.1,   -0.3,   -0.2,   -0.2,   -0.1,   -0.0,    0.0,   -0.0,    0.5,  999.0,  999.0,  999.0,  999.0,  999.0,  999.0,  999.0,  999.0,  999.0,  999.0,  999.0,  999.0,  999.0,  999.0,  999.0,  999.0,  999.0,  999.0,  999.0,  999.0,  999.0,  999.0,  999.0,  999.0,  999.0,  999.0,  999.0,  999.0,  999.0,  999.0
2012/01/21 23:20,  999.0,  999.0,  999.0,  999.0,    0.3,    0.2,   -0.4,    0.3,    0.1,    0.1,   -0.0,   -0.1,    0.1,    0.1,   -0.2,   -0.3,   -0.3,   -0.4,   -0.5,   -0.8,   -1.1,   -1.2,   -1.4,   -1.3,   -1.3,   -1.2,   -1.0,   -1.0,   -1.0,   -1.0,   -1.0,   -0.8,   -0.7,   -0.6,   -0.5,   -0.7,   -0.6,   -0.8,   -0.8,   -0.6,   -0.5,   -0.3,  999.0,  999.0,    0.1,   -0.1,   -0.3,    0.2,  999.0,  999.0,  999.0,  999.0,  999.0,  999.0,  999.0,  999.0,  999.0,  999.0,  999.0,  999.0,  999.0,  999.0,  999.0,  999.0,  999.0,  999.0,  999.0,  999.0,  999.0,  999.0,  999.0,  999.0,  999.0,  999.0,  999.0,  999.0,  999.0,  999.0,  999.0,  999.0
2012/01/21 23:30,  999.0,  999.0,  999.0,  999.0,    0.1,  999.0,  999.0,  999.0,   -0.0,    0.1,    0.1,    0.1,    0.1,    0.1,    0.0,   -0.1,   -0.2,   -0.5,   -0.5,   -0.6,   -0.8,   -0.9,   -0.8,   -0.8,   -1.0,   -1.1,   -1.1,   -1.0,   -0.8,   -0.8,   -0.8,   -0.6,   -0.5,   -0.6,   -0.8,   -0.7,   -0.5,   -0.4,   -0.3,    0.0,    0.2,   -0.2,    0.0,    0.2,    0.2,   -0.1,    0.5,  999.0,  999.0,  999.0,  999.0,  999.0,  999.0,  999.0,  999.0,  999.0,  999.0,  999.0,  999.0,  999.0,  999.0,  999.0,  999.0,  999.0,  999.0,  999.0,  999.0,  999.0,  999.0,  999.0,  999.0,  999.0,  999.0,  999.0,  999.0,  999.0,  999.0,  999.0,  999.0,    0.6
2012/01/21 23:40,  999.0,  999.0,  999.0,    0.2,    0.2,  999.0,   -0.2,  999.0,   -0.0,    0.1,    0.1,    0.1,    0.0,   -0.1,   -0.0,    0.1,   -0.2,   -0.6,   -1.2,   -1.2,   -1.1,   -1.1,   -1.1,   -1.1,   -1.2,   -1.2,   -1.2,   -1.1,   -1.0,   -1.0,   -0.8,   -0.7,   -0.5,   -0.5,   -0.3,   -0.4,  999.0,  999.0,  999.0,  999.0,  999.0,   -0.1,    0.0,   -0.1,    0.1,    0.2,    0.1,  999.0,  999.0,  999.0,  999.0,  999.0,  999.0,  999.0,  999.0,  999.0,  999.0,  999.0,  999.0,  999.0,  999.0,  999.0,  999.0,  999.0,  999.0,  999.0,  999.0,  999.0,  999.0,  999.0,  999.0,  999.0,  999.0,  999.0,  999.0,  999.0,  999.0,  999.0,  999.0,  999.0
2012/01/21 23:50,   -0.2,  999.0,  999.0,  999.0,    0.1,   -0.0,   -0.4,   -0.1,    0.0,   -0.0,   -0.1,    0.0,   -0.0,    0.0,    0.1,    0.0,   -0.0,    0.0,    0.0,   -0.0,   -0.1,   -0.4,   -0.7,   -0.8,   -0.9,   -0.9,   -0.9,   -0.9,   -0.8,   -0.8,   -0.8,   -0.7,   -0.7,   -0.6,   -0.5,   -0.4,   -0.3,  999.0,  999.0,    0.1,    0.2,   -0.0,    0.0,    0.0,    0.0,    0.1,    0.0,   -0.1,  999.0,  999.0,  999.0,  999.0,  999.0,  999.0,  999.0,  999.0,  999.0,  999.0,  999.0,  999.0,  999.0,  999.0,  999.0,  999.0,  999.0,  999.0,  999.0,  999.0,  999.0,  999.0,  999.0,  999.0,  999.0,  999.0,  999.0,  999.0,   -0.1,  999.0,  999.0,   -0.1
